Wetterdaten: Mittwoch, 20.01.2021
Datum Zeit Temp. Aussen Temp. o. S. Temp +5cm Feuchte Auss Luftdruck Regen Sonnenschein Regendauer Solar Windben Empfang
20.01.2021 00:00 6,3 C 5,6 C 3,9 C 89 % 1006,2 hPa 0,0 l/m 0 min 0 min 0 W/m 12,9 km/h (3 Bft) 100,00 %
20.01.2021 00:02 6,3 C 5,6 C 3,9 C 89 % 1006,2 hPa 0,0 l/m 0 min 0 min 0 W/m 8,0 km/h (2 Bft) 97,56 %
20.01.2021 00:04 6,3 C 5,6 C 3,9 C 89 % 1006,2 hPa 0,0 l/m 0 min 0 min 0 W/m 8,0 km/h (2 Bft) 100,00 %
20.01.2021 00:08 6,3 C 5,6 C 3,9 C 89 % 1006,2 hPa 0,0 l/m 0 min 0 min 0 W/m 1,6 km/h (1 Bft) 100,00 %
20.01.2021 00:10 6,3 C 5,6 C 3,9 C 89 % 1006,3 hPa 0,0 l/m 0 min 0 min 0 W/m 3,2 km/h (1 Bft) 100,00 %
20.01.2021 00:12 6,3 C 5,6 C 3,9 C 89 % 1006,2 hPa 0,0 l/m 0 min 0 min 0 W/m 0,0 km/h (0 Bft) 100,00 %
20.01.2021 00:14 6,3 C 5,6 C 3,9 C 89 % 1006,3 hPa 0,0 l/m 0 min 0 min 0 W/m 4,8 km/h (1 Bft) 100,00 %
20.01.2021 00:16 6,3 C 5,6 C 3,9 C 88 % 1006,3 hPa 0,0 l/m 0 min 0 min 0 W/m 12,9 km/h (3 Bft) 100,00 %
20.01.2021 00:18 6,3 C 5,6 C 3,9 C 88 % 1006,3 hPa 0,0 l/m 0 min 0 min 0 W/m 1,6 km/h (1 Bft) 97,87 %
20.01.2021 00:20 6,3 C 5,6 C 3,9 C 88 % 1006,3 hPa 0,0 l/m 0 min 0 min 0 W/m 0,0 km/h (0 Bft) 100,00 %
20.01.2021 00:22 6,3 C 5,6 C 3,9 C 88 % 1006,2 hPa 0,0 l/m 0 min 0 min 0 W/m 6,4 km/h (2 Bft) 100,00 %
20.01.2021 00:24 6,3 C 5,6 C 3,9 C 88 % 1006,2 hPa 0,0 l/m 0 min 0 min 0 W/m 3,2 km/h (1 Bft) 100,00 %
20.01.2021 00:26 6,3 C 5,6 C 3,9 C 88 % 1006,2 hPa 0,0 l/m 0 min 0 min 0 W/m 8,0 km/h (2 Bft) 95,74 %
20.01.2021 00:28 6,3 C 5,6 C 3,9 C 88 % 1006,2 hPa 0,0 l/m 0 min 0 min 0 W/m 3,2 km/h (1 Bft) 100,00 %
20.01.2021 00:30 6,3 C 5,6 C 3,9 C 87 % 1006,2 hPa 0,0 l/m 0 min 0 min 0 W/m 3,2 km/h (1 Bft) 100,00 %
20.01.2021 00:32 6,3 C 5,6 C 3,9 C 87 % 1006,2 hPa 0,0 l/m 0 min 0 min 0 W/m 0,0 km/h (0 Bft) 94,44 %
20.01.2021 00:34 6,3 C 5,6 C 3,9 C 87 % 1006,2 hPa 0,0 l/m 0 min 0 min 0 W/m 1,6 km/h (1 Bft) 97,87 %
20.01.2021 00:36 6,3 C 5,6 C 3,9 C 87 % 1006,1 hPa 0,0 l/m 0 min 0 min 0 W/m 0,0 km/h (0 Bft) 97,83 %
20.01.2021 00:38 6,3 C 5,6 C 3,9 C 87 % 1005,9 hPa 0,0 l/m 0 min 0 min 0 W/m 0,0 km/h (0 Bft) 98,31 %
20.01.2021 00:40 6,2 C 5,6 C 3,9 C 87 % 1006,0 hPa 0,0 l/m 0 min 0 min 0 W/m 0,0 km/h (0 Bft) 97,14 %
20.01.2021 00:42 6,3 C 6,1 C 3,9 C 87 % 1006,1 hPa 0,0 l/m 0 min 0 min 0 W/m 3,2 km/h (1 Bft) 97,87 %
20.01.2021 00:44 6,3 C 5,6 C 3,9 C 86 % 1005,9 hPa 0,0 l/m 0 min 0 min 0 W/m 3,2 km/h (1 Bft) 97,87 %
20.01.2021 00:46 6,3 C 5,6 C 3,9 C 86 % 1006,0 hPa 0,0 l/m 0 min 0 min 0 W/m 0,0 km/h (0 Bft) 97,87 %
20.01.2021 00:48 6,3 C 6,1 C 3,9 C 86 % 1005,9 hPa 0,0 l/m 0 min 0 min 0 W/m 0,0 km/h (0 Bft) 97,83 %
20.01.2021 00:50 6,3 C 6,1 C 3,9 C 86 % 1006,0 hPa 0,0 l/m 0 min 0 min 0 W/m 3,2 km/h (1 Bft) 97,87 %
20.01.2021 00:52 6,3 C 6,1 C 3,9 C 85 % 1006,0 hPa 0,0 l/m 0 min 0 min 0 W/m 1,6 km/h (1 Bft) 95,74 %
20.01.2021 00:54 6,3 C 6,1 C 3,9 C 85 % 1006,0 hPa 0,0 l/m 0 min 0 min 0 W/m 1,6 km/h (1 Bft) 95,74 %
20.01.2021 00:56 6,4 C 6,1 C 3,9 C 85 % 1005,9 hPa 0,0 l/m 0 min 0 min 0 W/m 0,0 km/h (0 Bft) 98,04 %
20.01.2021 00:58 6,4 C 6,1 C 3,9 C 85 % 1005,8 hPa 0,0 l/m 0 min 0 min 0 W/m 0,0 km/h (0 Bft) 93,62 %
20.01.2021 01:00 6,4 C 6,1 C 3,9 C 85 % 1005,7 hPa 0,0 l/m 0 min 0 min 0 W/m 8,0 km/h (2 Bft) 97,87 %
20.01.2021 01:02 6,4 C 6,1 C 3,9 C 85 % 1005,8 hPa 0,0 l/m 0 min 0 min 0 W/m 0,0 km/h (0 Bft) 100,00 %
20.01.2021 01:04 6,4 C 6,1 C 3,9 C 85 % 1006,0 hPa 0,0 l/m 0 min 0 min 0 W/m 14,5 km/h (3 Bft) 97,87 %
20.01.2021 01:06 6,4 C 6,1 C 3,9 C 84 % 1005,7 hPa 0,0 l/m 0 min 0 min 0 W/m 11,3 km/h (2 Bft) 97,87 %
20.01.2021 01:08 6,4 C 6,1 C 3,9 C 84 % 1005,7 hPa 0,0 l/m 0 min 0 min 0 W/m 3,2 km/h (1 Bft) 97,87 %
20.01.2021 01:10 6,4 C 6,1 C 3,9 C 84 % 1005,6 hPa 0,0 l/m 0 min 0 min 0 W/m 0,0 km/h (0 Bft) 97,87 %
20.01.2021 01:12 6,4 C 6,1 C 3,9 C 84 % 1005,6 hPa 0,0 l/m 0 min 0 min 0 W/m 3,2 km/h (1 Bft) 97,87 %
20.01.2021 01:14 6,4 C 6,1 C 3,9 C 84 % 1005,5 hPa 0,0 l/m 0 min 0 min 0 W/m 1,6 km/h (1 Bft) 97,83 %
20.01.2021 01:16 6,4 C 6,1 C 3,9 C 84 % 1005,5 hPa 0,0 l/m 0 min 0 min 0 W/m 1,6 km/h (1 Bft) 97,87 %
20.01.2021 01:18 6,4 C 6,1 C 3,9 C 84 % 1005,4 hPa 0,0 l/m 0 min 0 min 0 W/m 3,2 km/h (1 Bft) 97,87 %
20.01.2021 01:20 6,4 C 6,1 C 3,9 C 83 % 1005,3 hPa 0,0 l/m 0 min 0 min 0 W/m 1,6 km/h (1 Bft) 100,00 %
20.01.2021 01:22 6,4 C 6,1 C 3,9 C 83 % 1005,4 hPa 0,0 l/m 0 min 0 min 0 W/m 1,6 km/h (1 Bft) 100,00 %
20.01.2021 01:24 6,4 C 6,1 C 3,9 C 83 % 1005,4 hPa 0,0 l/m 0 min 0 min 0 W/m 19,3 km/h (3 Bft) 100,00 %
20.01.2021 01:26 6,4 C 6,1 C 3,9 C 83 % 1005,4 hPa 0,0 l/m 0 min 0 min 0 W/m 6,4 km/h (2 Bft) 100,00 %
20.01.2021 01:28 6,4 C 6,1 C 3,9 C 83 % 1005,1 hPa 0,0 l/m 0 min 0 min 0 W/m 4,8 km/h (1 Bft) 97,87 %
20.01.2021 01:30 6,5 C 6,1 C 3,9 C 83 % 1005,1 hPa 0,0 l/m 0 min 0 min 0 W/m 22,5 km/h (4 Bft) 100,00 %
20.01.2021 01:32 6,5 C 6,1 C 3,9 C 83 % 1005,3 hPa 0,0 l/m 0 min 0 min 0 W/m 3,2 km/h (1 Bft) 93,62 %
20.01.2021 01:34 6,5 C 6,1 C 3,9 C 83 % 1005,1 hPa 0,0 l/m 0 min 0 min 0 W/m 8,0 km/h (2 Bft) 95,74 %
20.01.2021 01:36 6,5 C 6,1 C 3,9 C 83 % 1005,1 hPa 0,0 l/m 0 min 0 min 0 W/m 1,6 km/h (1 Bft) 97,87 %
20.01.2021 01:38 6,5 C 6,1 C 3,9 C 83 % 1005,0 hPa 0,0 l/m 0 min 0 min 0 W/m 12,9 km/h (3 Bft) 97,83 %
20.01.2021 01:40 6,5 C 6,1 C 3,9 C 83 % 1005,0 hPa 0,0 l/m 0 min 0 min 0 W/m 6,4 km/h (2 Bft) 97,87 %
20.01.2021 01:42 6,4 C 6,1 C 3,4 C 83 % 1004,9 hPa 0,0 l/m 0 min 0 min 0 W/m 1,6 km/h (1 Bft) 97,87 %
20.01.2021 01:44 6,4 C 6,1 C 3,4 C 83 % 1004,9 hPa 0,0 l/m 0 min 0 min 0 W/m 1,6 km/h (1 Bft) 95,74 %
20.01.2021 01:46 6,4 C 6,1 C 3,4 C 83 % 1004,9 hPa 0,0 l/m 0 min 0 min 0 W/m 0,0 km/h (0 Bft) 97,87 %
20.01.2021 01:48 6,4 C 6,1 C 3,4 C 83 % 1004,9 hPa 0,0 l/m 0 min 0 min 0 W/m 16,1 km/h (3 Bft) 97,87 %
20.01.2021 01:50 6,4 C 6,1 C 3,4 C 83 % 1004,9 hPa 0,0 l/m 0 min 0 min 0 W/m 16,1 km/h (3 Bft) 97,83 %
20.01.2021 01:52 6,4 C 6,1 C 3,4 C 83 % 1004,8 hPa 0,0 l/m 0 min 0 min 0 W/m 6,4 km/h (2 Bft) 95,74 %
20.01.2021 01:54 6,4 C 6,1 C 3,4 C 83 % 1004,8 hPa 0,0 l/m 0 min 0 min 0 W/m 9,7 km/h (2 Bft) 97,87 %
20.01.2021 01:56 6,4 C 6,1 C 3,4 C 83 % 1004,8 hPa 0,0 l/m 0 min 0 min 0 W/m 0,0 km/h (0 Bft) 97,87 %
20.01.2021 01:58 6,4 C 6,1 C 3,4 C 83 % 1004,7 hPa 0,0 l/m 0 min 0 min 0 W/m 6,4 km/h (2 Bft) 97,87 %
20.01.2021 02:00 6,4 C 6,1 C 3,4 C 83 % 1004,7 hPa 0,0 l/m 0 min 0 min 0 W/m 19,3 km/h (3 Bft) 97,87 %
20.01.2021 02:02 6,4 C 6,1 C 3,4 C 83 % 1004,7 hPa 0,0 l/m 0 min 0 min 0 W/m 8,0 km/h (2 Bft) 95,12 %
20.01.2021 02:04 6,4 C 6,1 C 3,4 C 83 % 1004,7 hPa 0,0 l/m 0 min 0 min 0 W/m 8,0 km/h (2 Bft) 97,87 %
20.01.2021 02:06 6,4 C 6,1 C 3,4 C 84 % 1004,7 hPa 0,0 l/m 0 min 0 min 0 W/m 1,6 km/h (1 Bft) 96,61 %
20.01.2021 02:08 6,4 C 6,1 C 3,4 C 84 % 1004,5 hPa 0,0 l/m 0 min 0 min 0 W/m 9,7 km/h (2 Bft) 97,83 %
20.01.2021 02:10 6,4 C 6,1 C 3,4 C 84 % 1004,5 hPa 0,0 l/m 0 min 0 min 0 W/m 12,9 km/h (3 Bft) 95,74 %
20.01.2021 02:12 6,4 C 6,1 C 3,4 C 84 % 1004,5 hPa 0,0 l/m 0 min 0 min 0 W/m 4,8 km/h (1 Bft) 97,87 %
20.01.2021 02:14 6,4 C 6,1 C 3,4 C 84 % 1004,5 hPa 0,0 l/m 0 min 0 min 0 W/m 3,2 km/h (1 Bft) 97,87 %
20.01.2021 02:16 6,4 C 6,1 C 3,4 C 84 % 1004,5 hPa 0,0 l/m 0 min 0 min 0 W/m 0,0 km/h (0 Bft) 97,87 %
20.01.2021 02:18 6,4 C 6,1 C 3,4 C 84 % 1004,5 hPa 0,0 l/m 0 min 0 min 0 W/m 0,0 km/h (0 Bft) 100,00 %
20.01.2021 02:20 6,4 C 6,1 C 3,4 C 84 % 1004,4 hPa 0,0 l/m 0 min 0 min 0 W/m 1,6 km/h (1 Bft) 100,00 %
20.01.2021 02:22 6,5 C 6,1 C 3,4 C 84 % 1004,3 hPa 0,0 l/m 0 min 0 min 0 W/m 16,1 km/h (3 Bft) 97,83 %
20.01.2021 02:24 6,5 C 6,1 C 3,9 C 84 % 1004,4 hPa 0,0 l/m 0 min 0 min 0 W/m 12,9 km/h (3 Bft) 97,92 %
20.01.2021 02:26 6,5 C 6,1 C 3,9 C 84 % 1004,4 hPa 0,0 l/m 0 min 0 min 0 W/m 11,3 km/h (2 Bft) 98,00 %
20.01.2021 02:28 6,5 C 6,1 C 3,9 C 83 % 1004,4 hPa 0,0 l/m 0 min 0 min 0 W/m 0,0 km/h (0 Bft) 100,00 %
20.01.2021 02:30 6,6 C 6,1 C 3,9 C 83 % 1004,2 hPa 0,0 l/m 0 min 0 min 0 W/m 3,2 km/h (1 Bft) 95,74 %
20.01.2021 02:32 6,6 C 6,1 C 3,9 C 84 % 1004,2 hPa 0,0 l/m 0 min 0 min 0 W/m 0,0 km/h (0 Bft) 100,00 %
20.01.2021 02:34 6,6 C 6,1 C 3,9 C 83 % 1004,1 hPa 0,0 l/m 0 min 0 min 0 W/m 1,6 km/h (1 Bft) 100,00 %
20.01.2021 02:36 6,7 C 6,1 C 3,9 C 83 % 1004,2 hPa 0,0 l/m 0 min 0 min 0 W/m 6,4 km/h (2 Bft) 100,00 %
20.01.2021 02:38 6,7 C 6,1 C 3,9 C 83 % 1004,2 hPa 0,0 l/m 0 min 0 min 0 W/m 16,1 km/h (3 Bft) 100,00 %
20.01.2021 02:40 6,8 C 6,7 C 3,9 C 83 % 1004,4 hPa 0,0 l/m 0 min 0 min 0 W/m 9,7 km/h (2 Bft) 100,00 %
20.01.2021 02:42 6,8 C 6,7 C 3,9 C 83 % 1004,2 hPa 0,0 l/m 0 min 0 min 0 W/m 6,4 km/h (2 Bft) 100,00 %
20.01.2021 02:44 6,9 C 6,7 C 3,9 C 83 % 1004,2 hPa 0,0 l/m 0 min 0 min 0 W/m 9,7 km/h (2 Bft) 100,00 %
20.01.2021 02:46 6,9 C 6,7 C 3,9 C 83 % 1004,2 hPa 0,0 l/m 0 min 0 min 0 W/m 1,6 km/h (1 Bft) 100,00 %
20.01.2021 02:48 6,9 C 6,7 C 3,9 C 83 % 1004,2 hPa 0,0 l/m 0 min 0 min 0 W/m 29,0 km/h (5 Bft) 100,00 %
20.01.2021 02:50 6,9 C 6,7 C 3,9 C 83 % 1004,2 hPa 0,0 l/m 0 min 0 min 0 W/m 8,0 km/h (2 Bft) 100,00 %
20.01.2021 02:52 6,9 C 6,7 C 3,9 C 82 % 1004,2 hPa 0,0 l/m 0 min 0 min 0 W/m 0,0 km/h (0 Bft) 95,74 %
20.01.2021 02:54 6,9 C 6,7 C 3,9 C 82 % 1004,2 hPa 0,0 l/m 0 min 0 min 0 W/m 0,0 km/h (0 Bft) 100,00 %
20.01.2021 02:56 7,0 C 6,7 C 3,9 C 82 % 1004,1 hPa 0,0 l/m 0 min 0 min 0 W/m 6,4 km/h (2 Bft) 95,74 %
20.01.2021 02:58 7,0 C 6,7 C 3,9 C 82 % 1004,2 hPa 0,0 l/m 0 min 0 min 0 W/m 4,8 km/h (1 Bft) 95,56 %
20.01.2021 03:00 7,0 C 6,7 C 3,9 C 82 % 1004,3 hPa 0,0 l/m 0 min 0 min 0 W/m 16,1 km/h (3 Bft) 97,87 %
20.01.2021 03:02 7,0 C 6,7 C 3,9 C 82 % 1004,2 hPa 0,0 l/m 0 min 0 min 0 W/m 6,4 km/h (2 Bft) 97,87 %
20.01.2021 03:04 7,0 C 6,7 C 3,9 C 82 % 1004,2 hPa 0,0 l/m 0 min 0 min 0 W/m 12,9 km/h (3 Bft) 95,74 %
20.01.2021 03:06 7,0 C 6,7 C 3,9 C 82 % 1004,2 hPa 0,0 l/m 0 min 0 min 0 W/m 11,3 km/h (2 Bft) 97,87 %
20.01.2021 03:08 7,0 C 6,7 C 3,9 C 82 % 1004,1 hPa 0,0 l/m 0 min 0 min 0 W/m 0,0 km/h (0 Bft) 97,83 %
20.01.2021 03:10 7,0 C 6,7 C 3,9 C 82 % 1004,2 hPa 0,0 l/m 0 min 0 min 0 W/m 3,2 km/h (1 Bft) 97,87 %
20.01.2021 03:12 7,0 C 6,7 C 3,9 C 82 % 1004,1 hPa 0,0 l/m 0 min 0 min 0 W/m 0,0 km/h (0 Bft) 95,74 %
20.01.2021 03:14 7,0 C 6,7 C 3,9 C 82 % 1004,2 hPa 0,0 l/m 0 min 0 min 0 W/m 0,0 km/h (0 Bft) 95,74 %
20.01.2021 03:16 7,0 C 6,7 C 3,9 C 82 % 1004,2 hPa 0,0 l/m 0 min 0 min 0 W/m 1,6 km/h (1 Bft) 97,87 %
20.01.2021 03:18 7,0 C 6,7 C 3,9 C 82 % 1004,2 hPa 0,0 l/m 0 min 0 min 0 W/m 3,2 km/h (1 Bft) 97,87 %
20.01.2021 03:20 7,0 C 6,7 C 3,9 C 82 % 1004,2 hPa 0,0 l/m 0 min 0 min 0 W/m 3,2 km/h (1 Bft) 95,65 %
20.01.2021 03:22 7,0 C 6,7 C 3,9 C 82 % 1004,2 hPa 0,0 l/m 0 min 0 min 0 W/m 1,6 km/h (1 Bft) 93,62 %
20.01.2021 03:24 7,0 C 6,7 C 3,9 C 82 % 1004,1 hPa 0,0 l/m 0 min 0 min 0 W/m 0,0 km/h (0 Bft) 95,74 %
20.01.2021 03:26 7,0 C 6,7 C 3,9 C 82 % 1004,1 hPa 0,0 l/m 0 min 0 min 0 W/m 1,6 km/h (1 Bft) 95,74 %
20.01.2021 03:28 7,0 C 6,7 C 3,9 C 82 % 1004,1 hPa 0,0 l/m 0 min 0 min 0 W/m 3,2 km/h (1 Bft) 95,74 %
20.01.2021 03:30 7,0 C 6,1 C 3,9 C 82 % 1004,0 hPa 0,0 l/m 0 min 0 min 0 W/m 0,0 km/h (0 Bft) 95,74 %
20.01.2021 03:32 7,0 C 6,1 C 3,9 C 82 % 1004,0 hPa 0,0 l/m 0 min 0 min 0 W/m 8,0 km/h (2 Bft) 95,65 %
20.01.2021 03:34 7,0 C 6,1 C 3,9 C 82 % 1003,9 hPa 0,0 l/m 0 min 0 min 0 W/m 1,6 km/h (1 Bft) 95,74 %
20.01.2021 03:36 7,0 C 6,1 C 3,9 C 82 % 1003,9 hPa 0,0 l/m 0 min 0 min 0 W/m 8,0 km/h (2 Bft) 95,74 %
20.01.2021 03:38 7,0 C 6,1 C 3,9 C 82 % 1003,9 hPa 0,0 l/m 0 min 0 min 0 W/m 1,6 km/h (1 Bft) 95,74 %
20.01.2021 03:40 7,0 C 6,1 C 3,9 C 82 % 1004,0 hPa 0,0 l/m 0 min 0 min 0 W/m 9,7 km/h (2 Bft) 93,62 %
20.01.2021 03:42 6,9 C 6,1 C 3,9 C 82 % 1003,9 hPa 0,0 l/m 0 min 0 min 0 W/m 1,6 km/h (1 Bft) 95,74 %
20.01.2021 03:44 6,9 C 6,1 C 3,4 C 83 % 1004,0 hPa 0,0 l/m 0 min 0 min 0 W/m 9,7 km/h (2 Bft) 95,65 %
20.01.2021 03:46 6,9 C 6,1 C 3,4 C 83 % 1003,9 hPa 0,0 l/m 0 min 0 min 0 W/m 1,6 km/h (1 Bft) 93,62 %
20.01.2021 03:48 6,9 C 6,1 C 3,4 C 83 % 1003,9 hPa 0,0 l/m 0 min 0 min 0 W/m 0,0 km/h (0 Bft) 95,74 %
20.01.2021 03:50 6,9 C 6,1 C 3,4 C 83 % 1003,9 hPa 0,0 l/m 0 min 0 min 0 W/m 3,2 km/h (1 Bft) 95,74 %
20.01.2021 03:52 6,9 C 6,1 C 3,4 C 83 % 1003,9 hPa 0,0 l/m 0 min 0 min 0 W/m 1,6 km/h (1 Bft) 95,74 %
20.01.2021 03:54 6,8 C 6,1 C 3,4 C 83 % 1003,9 hPa 0,0 l/m 0 min 0 min 0 W/m 0,0 km/h (0 Bft) 95,74 %
20.01.2021 03:56 6,8 C 6,1 C 3,4 C 83 % 1003,9 hPa 0,0 l/m 0 min 0 min 0 W/m 0,0 km/h (0 Bft) 95,65 %
20.01.2021 03:58 6,8 C 6,1 C 3,4 C 83 % 1003,9 hPa 0,0 l/m 0 min 0 min 0 W/m 6,4 km/h (2 Bft) 95,74 %
20.01.2021 04:00 6,8 C 6,1 C 3,9 C 83 % 1003,9 hPa 0,0 l/m 0 min 0 min 0 W/m 0,0 km/h (0 Bft) 95,74 %
20.01.2021 04:02 6,8 C 6,1 C 3,9 C 83 % 1003,8 hPa 0,0 l/m 0 min 0 min 0 W/m 3,2 km/h (1 Bft) 96,30 %
20.01.2021 04:04 6,8 C 6,1 C 3,9 C 83 % 1003,7 hPa 0,0 l/m 0 min 0 min 0 W/m 3,2 km/h (1 Bft) 97,87 %
20.01.2021 04:06 6,8 C 6,1 C 3,9 C 83 % 1003,8 hPa 0,0 l/m 0 min 0 min 0 W/m 3,2 km/h (1 Bft) 97,87 %
20.01.2021 04:08 6,8 C 6,1 C 3,9 C 83 % 1003,7 hPa 0,0 l/m 0 min 0 min 0 W/m 3,2 km/h (1 Bft) 100,00 %
20.01.2021 04:10 6,9 C 6,1 C 3,9 C 83 % 1003,8 hPa 0,0 l/m 0 min 0 min 0 W/m 0,0 km/h (0 Bft) 100,00 %
20.01.2021 04:12 6,9 C 6,1 C 3,9 C 83 % 1003,8 hPa 0,0 l/m 0 min 0 min 0 W/m 0,0 km/h (0 Bft) 97,87 %
20.01.2021 04:14 6,9 C 6,1 C 3,9 C 84 % 1003,8 hPa 0,0 l/m 0 min 0 min 0 W/m 1,6 km/h (1 Bft) 100,00 %
20.01.2021 04:16 6,9 C 6,7 C 3,9 C 84 % 1003,8 hPa 0,0 l/m 0 min 0 min 0 W/m 1,6 km/h (1 Bft) 97,87 %
20.01.2021 04:18 6,9 C 6,7 C 3,9 C 84 % 1003,7 hPa 0,0 l/m 0 min 0 min 0 W/m 1,6 km/h (1 Bft) 95,74 %
20.01.2021 04:20 6,9 C 6,7 C 3,9 C 84 % 1003,8 hPa 0,0 l/m 0 min 0 min 0 W/m 0,0 km/h (0 Bft) 97,83 %
20.01.2021 04:22 6,9 C 6,7 C 3,9 C 84 % 1003,7 hPa 0,0 l/m 0 min 0 min 0 W/m 3,2 km/h (1 Bft) 95,74 %
20.01.2021 04:24 6,9 C 6,7 C 3,9 C 84 % 1003,8 hPa 0,0 l/m 0 min 0 min 0 W/m 0,0 km/h (0 Bft) 97,87 %
20.01.2021 04:26 6,9 C 6,7 C 3,9 C 84 % 1003,6 hPa 0,0 l/m 0 min 0 min 0 W/m 0,0 km/h (0 Bft) 97,87 %
20.01.2021 04:28 6,9 C 6,7 C 3,9 C 84 % 1003,7 hPa 0,0 l/m 0 min 0 min 0 W/m 0,0 km/h (0 Bft) 93,62 %
20.01.2021 04:30 6,9 C 6,7 C 3,9 C 84 % 1003,7 hPa 0,0 l/m 0 min 0 min 0 W/m 0,0 km/h (0 Bft) 97,87 %
20.01.2021 04:32 7,0 C 6,7 C 3,9 C 84 % 1003,6 hPa 0,0 l/m 0 min 0 min 0 W/m 0,0 km/h (0 Bft) 95,65 %
20.01.2021 04:34 7,0 C 7,2 C 4,5 C 84 % 1003,6 hPa 0,0 l/m 0 min 0 min 0 W/m 1,6 km/h (1 Bft) 97,87 %
20.01.2021 04:36 7,1 C 7,2 C 4,5 C 84 % 1003,6 hPa 0,0 l/m 0 min 0 min 0 W/m 8,0 km/h (2 Bft) 97,87 %
20.01.2021 04:38 7,1 C 7,2 C 4,5 C 84 % 1003,5 hPa 0,0 l/m 0 min 0 min 0 W/m 3,2 km/h (1 Bft) 97,87 %
20.01.2021 04:40 7,3 C 7,2 C 4,5 C 84 % 1003,6 hPa 0,0 l/m 0 min 0 min 0 W/m 8,0 km/h (2 Bft) 95,74 %
20.01.2021 04:42 7,3 C 7,2 C 4,5 C 84 % 1003,5 hPa 0,0 l/m 0 min 0 min 0 W/m 0,0 km/h (0 Bft) 95,74 %
20.01.2021 04:44 7,4 C 7,2 C 4,5 C 84 % 1003,5 hPa 0,0 l/m 0 min 0 min 0 W/m 0,0 km/h (0 Bft) 97,83 %
20.01.2021 04:46 7,5 C 7,2 C 4,5 C 84 % 1003,5 hPa 0,0 l/m 0 min 0 min 0 W/m 6,4 km/h (2 Bft) 95,74 %
20.01.2021 04:48 7,5 C 7,8 C 5,0 C 83 % 1003,5 hPa 0,0 l/m 0 min 0 min 0 W/m 3,2 km/h (1 Bft) 97,87 %
20.01.2021 04:50 7,6 C 7,8 C 5,0 C 83 % 1003,3 hPa 0,0 l/m 0 min 0 min 0 W/m 1,6 km/h (1 Bft) 97,87 %
20.01.2021 04:52 7,7 C 7,8 C 5,0 C 83 % 1003,3 hPa 0,0 l/m 0 min 0 min 0 W/m 3,2 km/h (1 Bft) 97,87 %
20.01.2021 04:54 7,8 C 7,8 C 5,0 C 83 % 1003,3 hPa 0,0 l/m 0 min 0 min 0 W/m 1,6 km/h (1 Bft) 97,87 %
20.01.2021 04:56 7,9 C 7,8 C 5,0 C 82 % 1003,3 hPa 0,0 l/m 0 min 0 min 0 W/m 12,9 km/h (3 Bft) 97,83 %
20.01.2021 04:58 7,9 C 7,8 C 5,0 C 82 % 1003,2 hPa 0,0 l/m 0 min 0 min 0 W/m 11,3 km/h (2 Bft) 97,87 %
20.01.2021 05:00 8,0 C 7,8 C 5,0 C 82 % 1003,2 hPa 0,0 l/m 0 min 0 min 0 W/m 3,2 km/h (1 Bft) 97,73 %
20.01.2021 05:02 8,0 C 7,8 C 5,0 C 81 % 1003,1 hPa 0,0 l/m 0 min 0 min 0 W/m 0,0 km/h (0 Bft) 100,00 %
20.01.2021 05:04 8,1 C 7,8 C 5,0 C 81 % 1003,0 hPa 0,0 l/m 0 min 0 min 0 W/m 4,8 km/h (1 Bft) 97,87 %
20.01.2021 05:06 8,2 C 7,8 C 5,0 C 81 % 1003,0 hPa 0,0 l/m 0 min 0 min 0 W/m 1,6 km/h (1 Bft) 100,00 %
20.01.2021 05:08 8,2 C 7,8 C 5,0 C 80 % 1003,0 hPa 0,0 l/m 0 min 0 min 0 W/m 4,8 km/h (1 Bft) 97,83 %
20.01.2021 05:10 8,3 C 7,8 C 5,0 C 80 % 1003,0 hPa 0,0 l/m 0 min 0 min 0 W/m 19,3 km/h (3 Bft) 100,00 %
20.01.2021 05:12 8,3 C 7,8 C 5,0 C 80 % 1003,0 hPa 0,0 l/m 0 min 0 min 0 W/m 12,9 km/h (3 Bft) 97,87 %
20.01.2021 05:14 8,4 C 7,8 C 5,0 C 79 % 1002,9 hPa 0,0 l/m 0 min 0 min 0 W/m 0,0 km/h (0 Bft) 100,00 %
20.01.2021 05:16 8,4 C 7,8 C 5,0 C 79 % 1002,9 hPa 0,0 l/m 0 min 0 min 0 W/m 3,2 km/h (1 Bft) 100,00 %
20.01.2021 05:18 8,4 C 7,8 C 5,0 C 79 % 1002,8 hPa 0,0 l/m 0 min 0 min 0 W/m 0,0 km/h (0 Bft) 100,00 %
20.01.2021 05:20 8,4 C 7,8 C 5,0 C 79 % 1002,8 hPa 0,0 l/m 0 min 0 min 0 W/m 3,2 km/h (1 Bft) 97,83 %
20.01.2021 05:22 8,4 C 7,8 C 5,0 C 79 % 1002,8 hPa 0,0 l/m 0 min 0 min 0 W/m 0,0 km/h (0 Bft) 100,00 %
20.01.2021 05:24 8,5 C 8,3 C 5,0 C 78 % 1002,7 hPa 0,0 l/m 0 min 0 min 0 W/m 12,9 km/h (3 Bft) 97,87 %
20.01.2021 05:26 8,5 C 7,8 C 5,0 C 78 % 1002,7 hPa 0,0 l/m 0 min 0 min 0 W/m 3,2 km/h (1 Bft) 100,00 %
20.01.2021 05:28 8,5 C 7,8 C 5,0 C 78 % 1002,7 hPa 0,0 l/m 0 min 0 min 0 W/m 0,0 km/h (0 Bft) 97,87 %
20.01.2021 05:30 8,5 C 8,3 C 5,0 C 78 % 1002,8 hPa 0,0 l/m 0 min 0 min 0 W/m 9,7 km/h (2 Bft) 100,00 %
20.01.2021 05:32 8,5 C 8,3 C 5,0 C 78 % 1002,7 hPa 0,0 l/m 0 min 0 min 0 W/m 6,4 km/h (2 Bft) 97,83 %
20.01.2021 05:34 8,5 C 8,3 C 5,0 C 78 % 1002,6 hPa 0,0 l/m 0 min 0 min 0 W/m 6,4 km/h (2 Bft) 100,00 %
20.01.2021 05:36 8,5 C 7,8 C 5,0 C 77 % 1002,6 hPa 0,0 l/m 0 min 0 min 0 W/m 1,6 km/h (1 Bft) 100,00 %
20.01.2021 05:38 8,5 C 7,8 C 5,0 C 77 % 1002,5 hPa 0,0 l/m 0 min 0 min 0 W/m 3,2 km/h (1 Bft) 100,00 %
20.01.2021 05:40 8,5 C 7,8 C 5,0 C 77 % 1002,6 hPa 0,0 l/m 0 min 0 min 0 W/m 0,0 km/h (0 Bft) 100,00 %
20.01.2021 05:42 8,5 C 7,8 C 5,0 C 78 % 1002,6 hPa 0,0 l/m 0 min 0 min 0 W/m 3,2 km/h (1 Bft) 100,00 %
20.01.2021 05:44 8,5 C 7,8 C 5,0 C 77 % 1002,5 hPa 0,0 l/m 0 min 0 min 0 W/m 1,6 km/h (1 Bft) 100,00 %
20.01.2021 05:46 8,5 C 7,8 C 5,0 C 78 % 1002,5 hPa 0,0 l/m 0 min 0 min 0 W/m 0,0 km/h (0 Bft) 100,00 %
20.01.2021 05:48 8,5 C 7,8 C 5,0 C 77 % 1002,5 hPa 0,0 l/m 0 min 0 min 0 W/m 3,2 km/h (1 Bft) 100,00 %
20.01.2021 05:50 8,5 C 7,8 C 5,0 C 77 % 1002,5 hPa 0,0 l/m 0 min 0 min 0 W/m 1,6 km/h (1 Bft) 100,00 %
20.01.2021 05:52 8,5 C 7,8 C 5,0 C 77 % 1002,4 hPa 0,0 l/m 0 min 0 min 0 W/m 3,2 km/h (1 Bft) 100,00 %
20.01.2021 05:54 8,5 C 7,8 C 5,0 C 77 % 1002,4 hPa 0,0 l/m 0 min 0 min 0 W/m 1,6 km/h (1 Bft) 100,00 %
20.01.2021 05:56 8,5 C 7,8 C 5,0 C 77 % 1002,3 hPa 0,0 l/m 0 min 0 min 0 W/m 0,0 km/h (0 Bft) 100,00 %
20.01.2021 05:58 8,5 C 7,8 C 5,0 C 77 % 1002,3 hPa 0,0 l/m 0 min 0 min 0 W/m 0,0 km/h (0 Bft) 100,00 %
20.01.2021 06:00 8,5 C 7,8 C 4,5 C 77 % 1002,3 hPa 0,0 l/m 0 min 0 min 0 W/m 0,0 km/h (0 Bft) 95,74 %
20.01.2021 06:02 8,4 C 7,2 C 4,5 C 77 % 1002,3 hPa 0,0 l/m 0 min 0 min 0 W/m 0,0 km/h (0 Bft) 100,00 %
20.01.2021 06:04 8,4 C 7,2 C 4,5 C 78 % 1002,2 hPa 0,0 l/m 0 min 0 min 0 W/m 0,0 km/h (0 Bft) 100,00 %
20.01.2021 06:08 8,4 C 7,2 C 4,5 C 78 % 1002,2 hPa 0,0 l/m 0 min 0 min 0 W/m 0,0 km/h (0 Bft) 98,94 %
20.01.2021 06:10 8,3 C 7,2 C 4,5 C 78 % 1002,1 hPa 0,0 l/m 0 min 0 min 0 W/m 0,0 km/h (0 Bft) 97,87 %
20.01.2021 06:12 8,3 C 7,2 C 4,5 C 78 % 1002,1 hPa 0,0 l/m 0 min 0 min 0 W/m 0,0 km/h (0 Bft) 95,74 %
20.01.2021 06:14 8,2 C 7,2 C 4,5 C 78 % 1002,2 hPa 0,0 l/m 0 min 0 min 0 W/m 0,0 km/h (0 Bft) 97,87 %
20.01.2021 06:16 8,1 C 7,2 C 4,5 C 78 % 1002,1 hPa 0,0 l/m 0 min 0 min 0 W/m 1,6 km/h (1 Bft) 97,87 %
20.01.2021 06:18 8,1 C 7,2 C 4,5 C 77 % 1002,1 hPa 0,0 l/m 0 min 0 min 0 W/m 0,0 km/h (0 Bft) 97,83 %
20.01.2021 06:20 8,0 C 7,2 C 4,5 C 77 % 1002,1 hPa 0,0 l/m 0 min 0 min 0 W/m 6,4 km/h (2 Bft) 97,87 %
20.01.2021 06:22 8,0 C 7,2 C 4,5 C 77 % 1002,1 hPa 0,0 l/m 0 min 0 min 0 W/m 1,6 km/h (1 Bft) 95,74 %
20.01.2021 06:24 8,0 C 7,2 C 4,5 C 76 % 1002,1 hPa 0,0 l/m 0 min 0 min 0 W/m 8,0 km/h (2 Bft) 97,87 %
20.01.2021 06:26 8,0 C 7,2 C 4,5 C 76 % 1002,1 hPa 0,0 l/m 0 min 0 min 0 W/m 3,2 km/h (1 Bft) 97,87 %
20.01.2021 06:28 8,0 C 7,2 C 4,5 C 76 % 1002,1 hPa 0,0 l/m 0 min 0 min 0 W/m 1,6 km/h (1 Bft) 97,87 %
20.01.2021 06:30 8,0 C 7,2 C 4,5 C 75 % 1002,1 hPa 0,0 l/m 0 min 0 min 0 W/m 0,0 km/h (0 Bft) 97,87 %
20.01.2021 06:32 8,0 C 7,8 C 4,5 C 75 % 1002,1 hPa 0,0 l/m 0 min 0 min 0 W/m 1,6 km/h (1 Bft) 95,65 %
20.01.2021 06:34 8,0 C 7,8 C 4,5 C 75 % 1002,1 hPa 0,0 l/m 0 min 0 min 0 W/m 11,3 km/h (2 Bft) 97,87 %
20.01.2021 06:36 8,0 C 7,8 C 4,5 C 75 % 1002,1 hPa 0,0 l/m 0 min 0 min 0 W/m 0,0 km/h (0 Bft) 97,87 %
20.01.2021 06:38 8,0 C 7,8 C 4,5 C 75 % 1002,1 hPa 0,0 l/m 0 min 0 min 0 W/m 4,8 km/h (1 Bft) 100,00 %
20.01.2021 06:40 8,0 C 7,8 C 4,5 C 75 % 1002,0 hPa 0,0 l/m 0 min 0 min 0 W/m 3,2 km/h (1 Bft) 97,87 %
20.01.2021 06:42 8,0 C 7,8 C 4,5 C 75 % 1002,0 hPa 0,0 l/m 0 min 0 min 0 W/m 6,4 km/h (2 Bft) 95,65 %
20.01.2021 06:44 8,0 C 7,8 C 4,5 C 75 % 1002,0 hPa 0,0 l/m 0 min 0 min 0 W/m 3,2 km/h (1 Bft) 97,87 %
20.01.2021 06:46 8,1 C 7,8 C 4,5 C 75 % 1002,0 hPa 0,0 l/m 0 min 0 min 0 W/m 1,6 km/h (1 Bft) 97,87 %
20.01.2021 06:48 8,1 C 7,8 C 4,5 C 75 % 1002,0 hPa 0,0 l/m 0 min 0 min 0 W/m 0,0 km/h (0 Bft) 95,74 %
20.01.2021 06:50 8,1 C 7,8 C 4,5 C 75 % 1002,0 hPa 0,0 l/m 0 min 0 min 0 W/m 3,2 km/h (1 Bft) 95,74 %
20.01.2021 06:52 8,1 C 7,8 C 4,5 C 75 % 1002,0 hPa 0,0 l/m 0 min 0 min 0 W/m 3,2 km/h (1 Bft) 97,87 %
20.01.2021 06:54 8,1 C 7,8 C 4,5 C 75 % 1002,0 hPa 0,0 l/m 0 min 0 min 0 W/m 1,6 km/h (1 Bft) 97,87 %
20.01.2021 06:56 8,1 C 7,8 C 4,5 C 75 % 1002,0 hPa 0,0 l/m 0 min 0 min 0 W/m 3,2 km/h (1 Bft) 95,65 %
20.01.2021 06:58 8,1 C 7,8 C 4,5 C 75 % 1002,1 hPa 0,0 l/m 0 min 0 min 0 W/m 3,2 km/h (1 Bft) 93,62 %
20.01.2021 07:00 8,2 C 7,8 C 4,5 C 75 % 1002,0 hPa 0,0 l/m 0 min 0 min 0 W/m 0,0 km/h (0 Bft) 91,49 %
20.01.2021 07:02 8,1 C 7,8 C 4,5 C 75 % 1002,0 hPa 0,0 l/m 0 min 0 min 0 W/m 3,2 km/h (1 Bft) 96,00 %
20.01.2021 07:04 8,2 C 7,8 C 4,5 C 75 % 1002,1 hPa 0,0 l/m 0 min 0 min 0 W/m 1,6 km/h (1 Bft) 93,62 %
20.01.2021 07:06 8,2 C 7,8 C 4,5 C 76 % 1002,0 hPa 0,0 l/m 0 min 0 min 0 W/m 0,0 km/h (0 Bft) 95,74 %
20.01.2021 07:08 8,2 C 7,8 C 4,5 C 76 % 1001,9 hPa 0,0 l/m 0 min 0 min 0 W/m 1,6 km/h (1 Bft) 95,65 %
20.01.2021 07:10 8,3 C 7,8 C 5,0 C 76 % 1001,9 hPa 0,0 l/m 0 min 0 min 0 W/m 6,4 km/h (2 Bft) 95,74 %
20.01.2021 07:12 8,3 C 7,8 C 4,5 C 76 % 1001,9 hPa 0,0 l/m 0 min 0 min 0 W/m 11,3 km/h (2 Bft) 93,62 %
20.01.2021 07:14 8,3 C 7,8 C 5,0 C 76 % 1001,9 hPa 0,0 l/m 0 min 0 min 0 W/m 1,6 km/h (1 Bft) 93,62 %
20.01.2021 07:16 8,3 C 7,8 C 5,0 C 76 % 1001,9 hPa 0,0 l/m 0 min 0 min 0 W/m 0,0 km/h (0 Bft) 95,74 %
20.01.2021 07:18 8,3 C 7,8 C 5,0 C 76 % 1001,8 hPa 0,0 l/m 0 min 0 min 0 W/m 0,0 km/h (0 Bft) 95,74 %
20.01.2021 07:20 8,3 C 7,8 C 5,0 C 76 % 1001,8 hPa 0,0 l/m 0 min 0 min 0 W/m 1,6 km/h (1 Bft) 95,65 %
20.01.2021 07:22 8,4 C 7,8 C 5,0 C 77 % 1001,7 hPa 0,0 l/m 0 min 0 min 0 W/m 1,6 km/h (1 Bft) 93,62 %
20.01.2021 07:24 8,4 C 7,8 C 5,0 C 77 % 1001,7 hPa 0,0 l/m 0 min 0 min 0 W/m 3,2 km/h (1 Bft) 95,74 %
20.01.2021 07:26 8,4 C 7,8 C 5,0 C 77 % 1001,8 hPa 0,0 l/m 0 min 0 min 0 W/m 1,6 km/h (1 Bft) 95,24 %
20.01.2021 07:28 8,4 C 7,8 C 5,0 C 77 % 1001,7 hPa 0,0 l/m 0 min 0 min 0 W/m 0,0 km/h (0 Bft) 95,92 %
20.01.2021 07:30 8,4 C 7,8 C 5,0 C 77 % 1001,7 hPa 0,0 l/m 0 min 0 min 0 W/m 0,0 km/h (0 Bft) 93,75 %
20.01.2021 07:32 8,4 C 7,8 C 5,0 C 77 % 1001,7 hPa 0,0 l/m 0 min 0 min 0 W/m 11,3 km/h (2 Bft) 95,83 %
20.01.2021 07:34 8,4 C 7,8 C 5,0 C 77 % 1001,7 hPa 0,0 l/m 0 min 0 min 0 W/m 0,0 km/h (0 Bft) 89,36 %
20.01.2021 07:36 8,4 C 7,8 C 5,0 C 77 % 1001,7 hPa 0,0 l/m 0 min 0 min 0 W/m 1,6 km/h (1 Bft) 95,74 %
20.01.2021 07:38 8,4 C 7,8 C 5,0 C 77 % 1001,7 hPa 0,0 l/m 0 min 0 min 0 W/m 9,7 km/h (2 Bft) 95,74 %
20.01.2021 07:40 8,5 C 7,8 C 5,0 C 77 % 1001,6 hPa 0,0 l/m 0 min 0 min 0 W/m 1,6 km/h (1 Bft) 93,62 %
20.01.2021 07:42 8,5 C 7,8 C 5,0 C 77 % 1001,7 hPa 0,0 l/m 0 min 0 min 0 W/m 0,0 km/h (0 Bft) 95,74 %
20.01.2021 07:44 8,5 C 7,8 C 5,0 C 77 % 1001,7 hPa 0,0 l/m 0 min 0 min 0 W/m 0,0 km/h (0 Bft) 95,12 %
20.01.2021 07:46 8,5 C 7,8 C 5,0 C 77 % 1001,7 hPa 0,0 l/m 0 min 0 min 0 W/m 3,2 km/h (1 Bft) 97,87 %
20.01.2021 07:48 8,5 C 7,8 C 5,0 C 77 % 1001,7 hPa 0,0 l/m 0 min 0 min 0 W/m 1,6 km/h (1 Bft) 95,74 %
20.01.2021 07:50 8,5 C 7,8 C 4,5 C 78 % 1001,8 hPa 0,0 l/m 0 min 0 min 0 W/m 17,7 km/h (3 Bft) 97,87 %
20.01.2021 07:52 8,5 C 7,8 C 4,5 C 78 % 1001,7 hPa 0,0 l/m 0 min 0 min 0 W/m 0,0 km/h (0 Bft) 97,87 %
20.01.2021 07:54 8,5 C 7,8 C 4,5 C 78 % 1001,7 hPa 0,0 l/m 0 min 0 min 0 W/m 0,0 km/h (0 Bft) 97,83 %
20.01.2021 07:56 8,5 C 7,8 C 4,5 C 79 % 1001,7 hPa 0,0 l/m 0 min 0 min 0 W/m 0,0 km/h (0 Bft) 97,87 %
20.01.2021 07:58 8,5 C 7,8 C 4,5 C 79 % 1001,7 hPa 0,0 l/m 0 min 0 min 0 W/m 0,0 km/h (0 Bft) 97,87 %
20.01.2021 08:00 8,5 C 7,8 C 4,5 C 79 % 1001,7 hPa 0,0 l/m 0 min 0 min 0 W/m 0,0 km/h (0 Bft) 97,87 %
20.01.2021 08:02 8,5 C 7,8 C 4,5 C 79 % 1001,7 hPa 0,0 l/m 0 min 0 min 0 W/m 3,2 km/h (1 Bft) 95,83 %
20.01.2021 08:04 8,5 C 7,8 C 4,5 C 79 % 1001,7 hPa 0,0 l/m 0 min 0 min 0 W/m 1,6 km/h (1 Bft) 97,92 %
20.01.2021 08:06 8,4 C 7,8 C 4,5 C 80 % 1001,6 hPa 0,0 l/m 0 min 0 min 0 W/m 3,2 km/h (1 Bft) 100,00 %
20.01.2021 08:08 8,4 C 7,8 C 4,5 C 80 % 1001,6 hPa 0,0 l/m 0 min 0 min 0 W/m 12,9 km/h (3 Bft) 100,00 %
20.01.2021 08:10 8,4 C 7,2 C 4,5 C 80 % 1001,6 hPa 0,0 l/m 0 min 0 min 0 W/m 3,2 km/h (1 Bft) 97,87 %
20.01.2021 08:12 8,4 C 7,2 C 4,5 C 80 % 1001,7 hPa 0,0 l/m 0 min 0 min 0 W/m 1,6 km/h (1 Bft) 100,00 %
20.01.2021 08:14 8,3 C 7,2 C 4,5 C 80 % 1001,6 hPa 0,0 l/m 0 min 0 min 0 W/m 8,0 km/h (2 Bft) 95,74 %
20.01.2021 08:16 8,3 C 7,2 C 4,5 C 81 % 1001,6 hPa 0,0 l/m 0 min 0 min 0 W/m 1,6 km/h (1 Bft) 100,00 %
20.01.2021 08:18 8,3 C 7,2 C 4,5 C 81 % 1001,7 hPa 0,0 l/m 0 min 0 min 0 W/m 0,0 km/h (0 Bft) 95,74 %
20.01.2021 08:20 8,3 C 7,2 C 4,5 C 81 % 1001,6 hPa 0,0 l/m 0 min 0 min 0 W/m 0,0 km/h (0 Bft) 100,00 %
20.01.2021 08:22 8,3 C 7,2 C 4,5 C 81 % 1001,6 hPa 0,0 l/m 0 min 0 min 0 W/m 0,0 km/h (0 Bft) 100,00 %
20.01.2021 08:24 8,2 C 7,2 C 4,5 C 81 % 1001,6 hPa 0,0 l/m 0 min 0 min 0 W/m 3,2 km/h (1 Bft) 97,87 %
20.01.2021 08:26 8,1 C 6,7 C 3,9 C 82 % 1001,7 hPa 0,0 l/m 0 min 0 min 0 W/m 4,8 km/h (1 Bft) 100,00 %
20.01.2021 08:28 8,1 C 6,7 C 3,9 C 82 % 1001,7 hPa 0,0 l/m 0 min 0 min 0 W/m 0,0 km/h (0 Bft) 100,00 %
20.01.2021 08:30 8,1 C 6,7 C 3,9 C 82 % 1001,7 hPa 0,0 l/m 0 min 0 min 0 W/m 12,9 km/h (3 Bft) 100,00 %
20.01.2021 08:32 8,1 C 6,7 C 3,9 C 82 % 1001,7 hPa 0,0 l/m 0 min 0 min 0 W/m 3,2 km/h (1 Bft) 100,00 %
20.01.2021 08:34 8,0 C 6,7 C 3,9 C 82 % 1001,7 hPa 0,0 l/m 0 min 0 min 0 W/m 1,6 km/h (1 Bft) 100,00 %
20.01.2021 08:36 8,0 C 6,7 C 3,9 C 83 % 1001,7 hPa 0,0 l/m 0 min 0 min 0 W/m 0,0 km/h (0 Bft) 100,00 %
20.01.2021 08:38 8,0 C 7,2 C 3,9 C 82 % 1001,7 hPa 0,0 l/m 0 min 0 min 0 W/m 3,2 km/h (1 Bft) 100,00 %
20.01.2021 08:40 8,0 C 7,2 C 3,9 C 82 % 1001,6 hPa 0,0 l/m 0 min 0 min 0 W/m 3,2 km/h (1 Bft) 100,00 %
20.01.2021 08:42 8,0 C 7,2 C 3,9 C 83 % 1001,6 hPa 0,0 l/m 0 min 0 min 0 W/m 8,0 km/h (2 Bft) 100,00 %
20.01.2021 08:44 7,9 C 7,2 C 3,9 C 82 % 1001,6 hPa 0,0 l/m 0 min 0 min 4 W/m 0,0 km/h (0 Bft) 97,87 %
20.01.2021 08:46 7,9 C 7,2 C 3,9 C 82 % 1001,6 hPa 0,0 l/m 0 min 0 min 5 W/m 0,0 km/h (0 Bft) 95,74 %
20.01.2021 08:48 7,9 C 7,2 C 3,9 C 82 % 1001,6 hPa 0,0 l/m 0 min 0 min 5 W/m 0,0 km/h (0 Bft) 100,00 %
20.01.2021 08:50 7,9 C 7,2 C 3,9 C 82 % 1001,7 hPa 0,0 l/m 0 min 0 min 5 W/m 1,6 km/h (1 Bft) 100,00 %
20.01.2021 08:52 7,9 C 7,2 C 4,5 C 82 % 1001,7 hPa 0,0 l/m 0 min 0 min 5 W/m 0,0 km/h (0 Bft) 100,00 %
20.01.2021 08:54 7,9 C 7,2 C 4,5 C 82 % 1001,6 hPa 0,0 l/m 0 min 0 min 5 W/m 1,6 km/h (1 Bft) 97,83 %
20.01.2021 08:56 7,9 C 7,2 C 4,5 C 82 % 1001,6 hPa 0,0 l/m 0 min 0 min 5 W/m 0,0 km/h (0 Bft) 100,00 %
20.01.2021 08:58 7,9 C 7,2 C 4,5 C 82 % 1001,6 hPa 0,0 l/m 0 min 0 min 5 W/m 6,4 km/h (2 Bft) 97,87 %
20.01.2021 09:00 7,9 C 7,2 C 4,5 C 81 % 1001,6 hPa 0,0 l/m 0 min 0 min 5 W/m 3,2 km/h (1 Bft) 100,00 %
20.01.2021 09:02 7,9 C 7,2 C 4,5 C 81 % 1001,6 hPa 0,0 l/m 0 min 0 min 5 W/m 6,4 km/h (2 Bft) 97,87 %
20.01.2021 09:04 7,9 C 7,8 C 4,5 C 81 % 1001,6 hPa 0,0 l/m 0 min 0 min 5 W/m 1,6 km/h (1 Bft) 95,74 %
20.01.2021 09:06 8,0 C 7,8 C 4,5 C 81 % 1001,6 hPa 0,0 l/m 0 min 0 min 5 W/m 9,7 km/h (2 Bft) 97,83 %
20.01.2021 09:08 8,0 C 7,8 C 4,5 C 81 % 1001,6 hPa 0,0 l/m 0 min 0 min 5 W/m 0,0 km/h (0 Bft) 93,62 %
20.01.2021 09:10 8,0 C 7,8 C 4,5 C 81 % 1001,6 hPa 0,0 l/m 0 min 0 min 6 W/m 3,2 km/h (1 Bft) 97,87 %
20.01.2021 09:12 8,0 C 7,8 C 4,5 C 81 % 1001,6 hPa 0,0 l/m 0 min 0 min 10 W/m 8,0 km/h (2 Bft) 97,87 %
20.01.2021 09:14 8,1 C 7,8 C 5,0 C 81 % 1001,6 hPa 0,0 l/m 0 min 0 min 11 W/m 12,9 km/h (3 Bft) 97,87 %
20.01.2021 09:16 8,1 C 7,8 C 4,5 C 81 % 1001,6 hPa 0,0 l/m 0 min 0 min 12 W/m 11,3 km/h (2 Bft) 95,74 %
20.01.2021 09:18 8,1 C 7,8 C 4,5 C 81 % 1001,6 hPa 0,0 l/m 0 min 0 min 14 W/m 3,2 km/h (1 Bft) 97,83 %
20.01.2021 09:20 8,1 C 7,8 C 5,0 C 81 % 1001,6 hPa 0,0 l/m 0 min 0 min 18 W/m 3,2 km/h (1 Bft) 97,87 %
20.01.2021 09:22 8,1 C 7,8 C 5,0 C 81 % 1001,6 hPa 0,0 l/m 0 min 0 min 22 W/m 0,0 km/h (0 Bft) 97,87 %
20.01.2021 09:24 8,2 C 7,8 C 5,0 C 81 % 1001,6 hPa 0,0 l/m 0 min 0 min 25 W/m 12,9 km/h (3 Bft) 97,87 %
20.01.2021 09:26 8,2 C 7,8 C 5,0 C 81 % 1001,6 hPa 0,0 l/m 0 min 0 min 26 W/m 8,0 km/h (2 Bft) 97,87 %
20.01.2021 09:28 8,2 C 7,8 C 5,0 C 81 % 1001,5 hPa 0,0 l/m 0 min 0 min 26 W/m 9,7 km/h (2 Bft) 97,87 %
20.01.2021 09:30 8,2 C 7,8 C 5,0 C 80 % 1001,5 hPa 0,0 l/m 0 min 0 min 26 W/m 14,5 km/h (3 Bft) 97,83 %
20.01.2021 09:32 8,3 C 7,8 C 5,0 C 80 % 1001,6 hPa 0,0 l/m 0 min 0 min 26 W/m 8,0 km/h (2 Bft) 100,00 %
20.01.2021 09:34 8,3 C 7,8 C 5,0 C 80 % 1001,5 hPa 0,0 l/m 0 min 0 min 26 W/m 6,4 km/h (2 Bft) 95,74 %
20.01.2021 09:36 8,3 C 7,8 C 5,0 C 80 % 1001,5 hPa 0,0 l/m 0 min 0 min 26 W/m 6,4 km/h (2 Bft) 97,87 %
20.01.2021 09:38 8,3 C 7,8 C 5,0 C 79 % 1001,5 hPa 0,0 l/m 0 min 0 min 26 W/m 0,0 km/h (0 Bft) 97,87 %
20.01.2021 09:40 8,3 C 7,8 C 5,0 C 79 % 1001,4 hPa 0,0 l/m 0 min 0 min 25 W/m 4,8 km/h (1 Bft) 97,87 %
20.01.2021 09:42 8,3 C 7,8 C 5,0 C 79 % 1001,5 hPa 0,0 l/m 0 min 0 min 27 W/m 6,4 km/h (2 Bft) 97,83 %
20.01.2021 09:44 8,3 C 7,8 C 5,0 C 79 % 1001,3 hPa 0,0 l/m 0 min 0 min 30 W/m 0,0 km/h (0 Bft) 95,74 %
20.01.2021 09:46 8,4 C 7,8 C 5,0 C 79 % 1001,3 hPa 0,0 l/m 0 min 0 min 32 W/m 3,2 km/h (1 Bft) 95,74 %
20.01.2021 09:48 8,4 C 7,8 C 5,0 C 79 % 1001,3 hPa 0,0 l/m 0 min 0 min 33 W/m 6,4 km/h (2 Bft) 95,74 %
20.01.2021 09:50 8,4 C 7,8 C 5,0 C 79 % 1001,4 hPa 0,0 l/m 0 min 0 min 35 W/m 0,0 km/h (0 Bft) 97,87 %
20.01.2021 09:52 8,4 C 7,8 C 5,0 C 78 % 1001,3 hPa 0,0 l/m 0 min 0 min 35 W/m 3,2 km/h (1 Bft) 95,74 %
20.01.2021 09:54 8,4 C 7,8 C 5,0 C 78 % 1001,3 hPa 0,0 l/m 0 min 0 min 35 W/m 1,6 km/h (1 Bft) 95,65 %
20.01.2021 09:56 8,4 C 7,8 C 5,0 C 78 % 1001,3 hPa 0,0 l/m 0 min 0 min 33 W/m 3,2 km/h (1 Bft) 97,87 %
20.01.2021 09:58 8,4 C 7,8 C 5,0 C 78 % 1001,2 hPa 0,0 l/m 0 min 0 min 36 W/m 8,0 km/h (2 Bft) 95,74 %
20.01.2021 10:00 8,4 C 7,8 C 5,0 C 78 % 1001,3 hPa 0,0 l/m 0 min 0 min 37 W/m 0,0 km/h (0 Bft) 97,87 %
20.01.2021 10:02 8,4 C 7,8 C 5,0 C 78 % 1001,6 hPa 0,0 l/m 0 min 0 min 37 W/m 0,0 km/h (0 Bft) 97,87 %
20.01.2021 10:04 8,4 C 7,8 C 5,0 C 78 % 1001,6 hPa 0,0 l/m 0 min 0 min 39 W/m 0,0 km/h (0 Bft) 97,87 %
20.01.2021 10:08 8,4 C 7,8 C 5,0 C 78 % 1001,5 hPa 0,0 l/m 0 min 0 min 43 W/m 6,4 km/h (2 Bft) 96,70 %
20.01.2021 10:10 8,4 C 7,8 C 5,0 C 78 % 1001,4 hPa 0,0 l/m 0 min 0 min 47 W/m 3,2 km/h (1 Bft) 93,62 %
20.01.2021 10:12 8,4 C 7,8 C 5,0 C 78 % 1001,4 hPa 0,0 l/m 0 min 0 min 50 W/m 1,6 km/h (1 Bft) 97,87 %
20.01.2021 10:14 8,4 C 7,8 C 5,0 C 78 % 1001,3 hPa 0,0 l/m 0 min 0 min 53 W/m 0,0 km/h (0 Bft) 97,87 %
20.01.2021 10:16 8,4 C 7,8 C 5,0 C 78 % 1001,2 hPa 0,0 l/m 0 min 0 min 55 W/m 0,0 km/h (0 Bft) 95,65 %
20.01.2021 10:18 8,4 C 7,8 C 5,0 C 78 % 1001,3 hPa 0,0 l/m 0 min 0 min 58 W/m 0,0 km/h (0 Bft) 97,87 %
20.01.2021 10:20 8,4 C 7,8 C 5,0 C 78 % 1001,3 hPa 0,0 l/m 0 min 0 min 58 W/m 1,6 km/h (1 Bft) 95,74 %
20.01.2021 10:22 8,4 C 7,8 C 5,0 C 78 % 1001,2 hPa 0,0 l/m 0 min 0 min 58 W/m 1,6 km/h (1 Bft) 97,87 %
20.01.2021 10:24 8,4 C 7,8 C 5,0 C 78 % 1001,2 hPa 0,0 l/m 0 min 0 min 58 W/m 1,6 km/h (1 Bft) 95,74 %
20.01.2021 10:26 8,4 C 7,8 C 5,0 C 78 % 1001,1 hPa 0,0 l/m 0 min 0 min 58 W/m 1,6 km/h (1 Bft) 95,65 %
20.01.2021 10:28 8,4 C 8,3 C 5,0 C 78 % 1001,1 hPa 0,0 l/m 0 min 0 min 58 W/m 0,0 km/h (0 Bft) 95,74 %
20.01.2021 10:30 8,4 C 8,3 C 5,0 C 77 % 1001,1 hPa 0,0 l/m 0 min 0 min 60 W/m 3,2 km/h (1 Bft) 95,74 %
20.01.2021 10:32 8,4 C 8,3 C 5,0 C 77 % 1001,2 hPa 0,0 l/m 0 min 0 min 62 W/m 1,6 km/h (1 Bft) 100,00 %
20.01.2021 10:34 8,4 C 8,3 C 5,0 C 77 % 1001,1 hPa 0,0 l/m 0 min 0 min 67 W/m 1,6 km/h (1 Bft) 95,74 %
20.01.2021 10:36 8,4 C 8,3 C 5,0 C 77 % 1001,1 hPa 0,0 l/m 0 min 0 min 71 W/m 1,6 km/h (1 Bft) 97,87 %
20.01.2021 10:38 8,4 C 8,3 C 5,0 C 77 % 1001,1 hPa 0,0 l/m 0 min 0 min 74 W/m 0,0 km/h (0 Bft) 97,83 %
20.01.2021 10:40 8,4 C 8,3 C 5,0 C 77 % 1001,2 hPa 0,0 l/m 0 min 0 min 76 W/m 1,6 km/h (1 Bft) 100,00 %
20.01.2021 10:42 8,4 C 8,3 C 5,0 C 77 % 1001,1 hPa 0,0 l/m 0 min 0 min 76 W/m 0,0 km/h (0 Bft) 93,62 %
20.01.2021 10:44 8,5 C 8,3 C 5,6 C 77 % 1001,1 hPa 0,0 l/m 0 min 0 min 74 W/m 1,6 km/h (1 Bft) 100,00 %
20.01.2021 10:46 8,5 C 8,3 C 5,6 C 77 % 1001,0 hPa 0,0 l/m 0 min 0 min 76 W/m 1,6 km/h (1 Bft) 97,87 %
20.01.2021 10:48 8,5 C 8,3 C 5,0 C 77 % 1001,1 hPa 0,0 l/m 0 min 0 min 76 W/m 1,6 km/h (1 Bft) 97,87 %
20.01.2021 10:50 8,5 C 8,3 C 5,0 C 77 % 1001,1 hPa 0,0 l/m 0 min 0 min 74 W/m 0,0 km/h (0 Bft) 95,65 %
20.01.2021 10:52 8,5 C 7,8 C 5,0 C 77 % 1001,0 hPa 0,0 l/m 0 min 0 min 74 W/m 1,6 km/h (1 Bft) 89,36 %
20.01.2021 10:54 8,4 C 7,8 C 5,0 C 77 % 1001,1 hPa 0,0 l/m 0 min 0 min 74 W/m 1,6 km/h (1 Bft) 95,74 %
20.01.2021 10:56 8,3 C 7,8 C 5,0 C 77 % 1001,1 hPa 0,0 l/m 0 min 0 min 74 W/m 1,6 km/h (1 Bft) 97,87 %
20.01.2021 10:58 8,3 C 7,8 C 5,0 C 77 % 1001,1 hPa 0,0 l/m 0 min 0 min 74 W/m 1,6 km/h (1 Bft) 97,87 %
20.01.2021 11:00 8,2 C 7,8 C 4,5 C 77 % 1001,0 hPa 0,0 l/m 0 min 0 min 74 W/m 1,6 km/h (1 Bft) 97,87 %
20.01.2021 11:02 8,1 C 7,8 C 5,0 C 77 % 1000,9 hPa 0,0 l/m 0 min 0 min 71 W/m 0,0 km/h (0 Bft) 97,87 %
20.01.2021 11:04 8,1 C 7,8 C 5,0 C 77 % 1001,1 hPa 0,0 l/m 0 min 0 min 68 W/m 0,0 km/h (0 Bft) 97,87 %
20.01.2021 11:06 8,1 C 7,8 C 5,0 C 77 % 1001,1 hPa 0,0 l/m 0 min 0 min 66 W/m 0,0 km/h (0 Bft) 93,62 %
20.01.2021 11:08 8,1 C 7,8 C 5,0 C 77 % 1001,0 hPa 0,0 l/m 0 min 0 min 62 W/m 0,0 km/h (0 Bft) 97,67 %
20.01.2021 11:10 8,1 C 7,8 C 5,0 C 77 % 1001,0 hPa 0,0 l/m 0 min 0 min 62 W/m 0,0 km/h (0 Bft) 95,74 %
20.01.2021 11:12 8,0 C 7,8 C 5,0 C 77 % 1000,9 hPa 0,0 l/m 0 min 0 min 62 W/m 0,0 km/h (0 Bft) 97,87 %
20.01.2021 11:14 8,0 C 7,8 C 5,0 C 77 % 1001,0 hPa 0,0 l/m 0 min 0 min 63 W/m 0,0 km/h (0 Bft) 97,87 %
20.01.2021 11:16 8,0 C 7,8 C 5,0 C 77 % 1001,1 hPa 0,0 l/m 0 min 0 min 65 W/m 0,0 km/h (0 Bft) 97,83 %
20.01.2021 11:18 8,0 C 7,8 C 5,0 C 77 % 1001,2 hPa 0,0 l/m 0 min 0 min 68 W/m 0,0 km/h (0 Bft) 97,87 %
20.01.2021 11:20 8,0 C 8,3 C 5,0 C 76 % 1001,2 hPa 0,0 l/m 0 min 0 min 70 W/m 0,0 km/h (0 Bft) 97,87 %
20.01.2021 11:22 8,0 C 8,3 C 5,0 C 76 % 1001,1 hPa 0,0 l/m 0 min 0 min 71 W/m 0,0 km/h (0 Bft) 97,87 %
20.01.2021 11:24 8,0 C 8,3 C 5,0 C 76 % 1001,2 hPa 0,0 l/m 0 min 0 min 73 W/m 0,0 km/h (0 Bft) 95,74 %
20.01.2021 11:26 8,1 C 8,3 C 5,0 C 76 % 1001,1 hPa 0,0 l/m 0 min 0 min 79 W/m 0,0 km/h (0 Bft) 95,65 %
20.01.2021 11:28 8,1 C 8,3 C 5,0 C 75 % 1001,0 hPa 0,0 l/m 0 min 0 min 88 W/m 0,0 km/h (0 Bft) 97,87 %
20.01.2021 11:30 8,1 C 9,4 C 5,0 C 75 % 1001,0 hPa 0,0 l/m 0 min 0 min 110 W/m 0,0 km/h (0 Bft) 97,87 %
20.01.2021 11:32 8,1 C 10,6 C 5,0 C 75 % 1000,9 hPa 0,0 l/m 2 min 0 min 199 W/m 0,0 km/h (0 Bft) 97,87 %
20.01.2021 11:34 8,2 C 10,6 C 5,0 C 76 % 1000,8 hPa 0,0 l/m 2 min 0 min 220 W/m 0,0 km/h (0 Bft) 97,87 %
20.01.2021 11:36 8,3 C 11,1 C 5,0 C 76 % 1000,7 hPa 0,0 l/m 2 min 0 min 247 W/m 0,0 km/h (0 Bft) 97,87 %
20.01.2021 11:38 8,3 C 11,7 C 5,6 C 75 % 1000,6 hPa 0,0 l/m 2 min 0 min 243 W/m 0,0 km/h (0 Bft) 95,65 %
20.01.2021 11:40 8,4 C 11,1 C 5,6 C 75 % 1000,5 hPa 0,0 l/m 2 min 0 min 233 W/m 0,0 km/h (0 Bft) 95,74 %
20.01.2021 11:42 8,4 C 10,6 C 5,6 C 75 % 1000,3 hPa 0,0 l/m 0 min 0 min 151 W/m 0,0 km/h (0 Bft) 97,87 %
20.01.2021 11:44 8,4 C 11,1 C 5,6 C 75 % 1000,4 hPa 0,0 l/m 2 min 0 min 234 W/m 0,0 km/h (0 Bft) 97,87 %
20.01.2021 11:46 8,5 C 11,7 C 5,6 C 75 % 1000,2 hPa 0,0 l/m 2 min 0 min 282 W/m 0,0 km/h (0 Bft) 100,00 %
20.01.2021 11:48 8,5 C 12,2 C 5,6 C 75 % 1000,3 hPa 0,0 l/m 2 min 0 min 294 W/m 0,0 km/h (0 Bft) 100,00 %
20.01.2021 11:50 8,6 C 12,2 C 5,6 C 75 % 1000,3 hPa 0,0 l/m 2 min 0 min 263 W/m 0,0 km/h (0 Bft) 97,83 %
20.01.2021 11:52 8,6 C 12,2 C 5,6 C 75 % 1000,3 hPa 0,0 l/m 2 min 0 min 261 W/m 0,0 km/h (0 Bft) 100,00 %
20.01.2021 11:54 8,7 C 12,2 C 6,2 C 74 % 1000,4 hPa 0,0 l/m 2 min 0 min 272 W/m 0,0 km/h (0 Bft) 100,00 %
20.01.2021 11:56 8,8 C 12,2 C 6,2 C 74 % 1000,3 hPa 0,0 l/m 2 min 0 min 254 W/m 0,0 km/h (0 Bft) 100,00 %
20.01.2021 11:58 8,8 C 12,8 C 7,3 C 74 % 1000,4 hPa 0,0 l/m 2 min 0 min 288 W/m 0,0 km/h (0 Bft) 97,87 %
20.01.2021 12:00 8,9 C 12,8 C 8,4 C 75 % 1000,5 hPa 0,0 l/m 2 min 0 min 309 W/m 0,0 km/h (0 Bft) 97,87 %
20.01.2021 12:02 8,9 C 11,7 C 7,8 C 74 % 1000,3 hPa 0,0 l/m 2 min 0 min 206 W/m 0,0 km/h (0 Bft) 100,00 %
20.01.2021 12:04 9,0 C 10,0 C 7,3 C 74 % 1000,2 hPa 0,0 l/m 0 min 0 min 88 W/m 0,0 km/h (0 Bft) 100,00 %
20.01.2021 12:08 9,0 C 8,9 C 6,2 C 74 % 1000,3 hPa 0,0 l/m 0 min 0 min 74 W/m 0,0 km/h (0 Bft) 98,97 %
20.01.2021 12:10 9,0 C 8,9 C 6,2 C 73 % 1000,4 hPa 0,0 l/m 0 min 0 min 84 W/m 0,0 km/h (0 Bft) 100,00 %
20.01.2021 12:12 9,0 C 8,9 C 6,2 C 73 % 1000,3 hPa 0,0 l/m 0 min 0 min 106 W/m 0,0 km/h (0 Bft) 97,87 %
20.01.2021 12:14 9,0 C 8,9 C 6,2 C 73 % 1000,3 hPa 0,0 l/m 0 min 0 min 107 W/m 0,0 km/h (0 Bft) 97,87 %
20.01.2021 12:16 9,0 C 8,9 C 6,2 C 72 % 1000,3 hPa 0,0 l/m 0 min 0 min 97 W/m 0,0 km/h (0 Bft) 95,65 %
20.01.2021 12:18 9,0 C 8,9 C 6,2 C 72 % 1000,3 hPa 0,0 l/m 0 min 0 min 97 W/m 0,0 km/h (0 Bft) 95,74 %
20.01.2021 12:20 9,1 C 8,9 C 6,2 C 70 % 1000,3 hPa 0,0 l/m 0 min 0 min 93 W/m 1,6 km/h (1 Bft) 95,74 %
20.01.2021 12:22 9,1 C 8,9 C 6,2 C 70 % 1000,3 hPa 0,0 l/m 0 min 0 min 86 W/m 1,6 km/h (1 Bft) 95,74 %
20.01.2021 12:24 9,2 C 8,9 C 6,2 C 70 % 1000,3 hPa 0,0 l/m 0 min 0 min 78 W/m 8,0 km/h (2 Bft) 95,74 %
20.01.2021 12:26 9,2 C 8,9 C 6,2 C 70 % 1000,3 hPa 0,0 l/m 0 min 0 min 76 W/m 8,0 km/h (2 Bft) 93,62 %
20.01.2021 12:28 9,3 C 8,9 C 6,2 C 70 % 1000,2 hPa 0,0 l/m 0 min 0 min 73 W/m 8,0 km/h (2 Bft) 95,65 %
20.01.2021 12:30 9,3 C 8,9 C 6,2 C 70 % 1000,2 hPa 0,0 l/m 0 min 0 min 71 W/m 3,2 km/h (1 Bft) 95,74 %
20.01.2021 12:32 9,3 C 8,9 C 6,2 C 70 % 1000,2 hPa 0,0 l/m 0 min 0 min 67 W/m 0,0 km/h (0 Bft) 93,62 %
20.01.2021 12:34 9,3 C 8,9 C 5,6 C 69 % 1000,2 hPa 0,0 l/m 0 min 0 min 64 W/m 1,6 km/h (1 Bft) 93,62 %
20.01.2021 12:36 9,3 C 8,9 C 6,2 C 69 % 1000,1 hPa 0,0 l/m 0 min 0 min 67 W/m 1,6 km/h (1 Bft) 95,74 %
20.01.2021 12:38 9,4 C 8,9 C 5,6 C 69 % 1000,1 hPa 0,0 l/m 0 min 0 min 69 W/m 1,6 km/h (1 Bft) 95,74 %
20.01.2021 12:40 9,4 C 8,9 C 5,6 C 69 % 1000,1 hPa 0,0 l/m 0 min 0 min 72 W/m 8,0 km/h (2 Bft) 93,48 %
20.01.2021 12:42 9,4 C 8,9 C 5,6 C 69 % 1000,1 hPa 0,0 l/m 0 min 0 min 80 W/m 1,6 km/h (1 Bft) 95,74 %
20.01.2021 12:44 9,4 C 8,9 C 6,2 C 69 % 1000,1 hPa 0,0 l/m 0 min 0 min 83 W/m 3,2 km/h (1 Bft) 93,62 %
20.01.2021 12:46 9,4 C 9,4 C 6,2 C 69 % 1000,0 hPa 0,0 l/m 0 min 0 min 79 W/m 1,6 km/h (1 Bft) 95,74 %
20.01.2021 12:48 9,4 C 9,4 C 6,2 C 69 % 1000,0 hPa 0,0 l/m 0 min 0 min 75 W/m 0,0 km/h (0 Bft) 95,74 %
20.01.2021 12:50 9,4 C 9,4 C 6,2 C 69 % 1000,0 hPa 0,0 l/m 0 min 0 min 75 W/m 3,2 km/h (1 Bft) 95,74 %
20.01.2021 12:52 9,5 C 9,4 C 6,2 C 69 % 1000,0 hPa 0,0 l/m 0 min 0 min 78 W/m 3,2 km/h (1 Bft) 93,48 %
20.01.2021 12:54 9,5 C 9,4 C 6,2 C 69 % 999,9 hPa 0,0 l/m 0 min 0 min 87 W/m 0,0 km/h (0 Bft) 97,87 %
20.01.2021 12:56 9,5 C 9,4 C 6,2 C 69 % 999,9 hPa 0,0 l/m 0 min 0 min 93 W/m 1,6 km/h (1 Bft) 93,62 %
20.01.2021 12:58 9,5 C 9,4 C 6,2 C 69 % 999,8 hPa 0,0 l/m 0 min 0 min 98 W/m 0,0 km/h (0 Bft) 95,74 %
20.01.2021 13:00 9,5 C 9,4 C 6,2 C 69 % 999,8 hPa 0,0 l/m 0 min 0 min 105 W/m 1,6 km/h (1 Bft) 97,87 %
20.01.2021 13:02 9,5 C 9,4 C 6,2 C 69 % 999,8 hPa 0,0 l/m 0 min 0 min 103 W/m 1,6 km/h (1 Bft) 95,74 %
20.01.2021 13:04 9,5 C 9,4 C 6,2 C 69 % 999,7 hPa 0,0 l/m 0 min 0 min 92 W/m 0,0 km/h (0 Bft) 95,65 %
20.01.2021 13:06 9,5 C 9,4 C 6,2 C 69 % 999,7 hPa 0,0 l/m 0 min 0 min 83 W/m 9,7 km/h (2 Bft) 97,87 %
20.01.2021 13:08 9,5 C 9,4 C 6,2 C 69 % 999,6 hPa 0,0 l/m 0 min 0 min 83 W/m 3,2 km/h (1 Bft) 97,87 %
20.01.2021 13:10 9,6 C 9,4 C 6,2 C 68 % 999,6 hPa 0,0 l/m 0 min 0 min 83 W/m 8,0 km/h (2 Bft) 97,87 %
20.01.2021 13:12 9,6 C 9,4 C 6,2 C 68 % 999,6 hPa 0,0 l/m 0 min 0 min 78 W/m 0,0 km/h (0 Bft) 95,74 %
20.01.2021 13:14 9,6 C 9,4 C 6,2 C 68 % 999,6 hPa 0,0 l/m 0 min 0 min 77 W/m 8,0 km/h (2 Bft) 95,74 %
20.01.2021 13:16 9,6 C 9,4 C 6,2 C 68 % 999,5 hPa 0,0 l/m 0 min 0 min 77 W/m 17,7 km/h (3 Bft) 100,00 %
20.01.2021 13:18 9,6 C 9,4 C 6,2 C 68 % 999,4 hPa 0,0 l/m 0 min 0 min 80 W/m 0,0 km/h (0 Bft) 100,00 %
20.01.2021 13:20 9,7 C 9,4 C 6,2 C 67 % 999,5 hPa 0,0 l/m 0 min 0 min 84 W/m 8,0 km/h (2 Bft) 100,00 %
20.01.2021 13:22 9,7 C 9,4 C 6,2 C 67 % 999,5 hPa 0,0 l/m 0 min 0 min 85 W/m 6,4 km/h (2 Bft) 100,00 %
20.01.2021 13:24 9,7 C 9,4 C 6,2 C 67 % 999,4 hPa 0,0 l/m 0 min 0 min 87 W/m 1,6 km/h (1 Bft) 100,00 %
20.01.2021 13:26 9,8 C 9,4 C 6,2 C 67 % 999,4 hPa 0,0 l/m 0 min 0 min 90 W/m 3,2 km/h (1 Bft) 100,00 %
20.01.2021 13:28 9,8 C 9,4 C 6,2 C 67 % 999,4 hPa 0,0 l/m 0 min 0 min 98 W/m 3,2 km/h (1 Bft) 100,00 %
20.01.2021 13:30 9,8 C 9,4 C 6,2 C 67 % 999,4 hPa 0,0 l/m 0 min 0 min 114 W/m 1,6 km/h (1 Bft) 100,00 %
20.01.2021 13:32 9,8 C 10,0 C 6,2 C 68 % 999,4 hPa 0,0 l/m 0 min 0 min 136 W/m 3,2 km/h (1 Bft) 100,00 %
20.01.2021 13:34 9,8 C 10,0 C 6,7 C 68 % 999,4 hPa 0,0 l/m 0 min 0 min 146 W/m 0,0 km/h (0 Bft) 100,00 %
20.01.2021 13:36 9,8 C 9,4 C 6,2 C 69 % 999,4 hPa 0,0 l/m 0 min 0 min 130 W/m 8,0 km/h (2 Bft) 100,00 %
20.01.2021 13:38 9,8 C 9,4 C 6,2 C 69 % 999,4 hPa 0,0 l/m 0 min 0 min 113 W/m 1,6 km/h (1 Bft) 100,00 %
20.01.2021 13:40 9,8 C 9,4 C 6,2 C 69 % 999,4 hPa 0,0 l/m 0 min 0 min 98 W/m 1,6 km/h (1 Bft) 100,00 %
20.01.2021 13:42 9,8 C 9,4 C 6,2 C 69 % 999,2 hPa 0,0 l/m 0 min 0 min 92 W/m 1,6 km/h (1 Bft) 97,87 %
20.01.2021 13:44 9,8 C 9,4 C 6,2 C 69 % 999,2 hPa 0,0 l/m 0 min 0 min 87 W/m 1,6 km/h (1 Bft) 100,00 %
20.01.2021 13:46 9,7 C 9,4 C 6,2 C 69 % 999,2 hPa 0,0 l/m 0 min 0 min 74 W/m 3,2 km/h (1 Bft) 100,00 %
20.01.2021 13:48 9,7 C 9,4 C 5,6 C 69 % 999,1 hPa 0,0 l/m 0 min 0 min 71 W/m 9,7 km/h (2 Bft) 97,87 %
20.01.2021 13:50 9,6 C 9,4 C 5,6 C 69 % 999,1 hPa 0,0 l/m 0 min 0 min 71 W/m 1,6 km/h (1 Bft) 97,87 %
20.01.2021 13:52 9,6 C 9,4 C 5,6 C 69 % 999,2 hPa 0,0 l/m 0 min 0 min 72 W/m 0,0 km/h (0 Bft) 97,87 %
20.01.2021 13:54 9,6 C 9,4 C 5,6 C 69 % 999,1 hPa 0,0 l/m 0 min 0 min 73 W/m 1,6 km/h (1 Bft) 97,87 %
20.01.2021 13:56 9,6 C 9,4 C 5,6 C 69 % 999,1 hPa 0,0 l/m 0 min 0 min 78 W/m 6,4 km/h (2 Bft) 97,87 %
20.01.2021 13:58 9,6 C 9,4 C 5,6 C 69 % 999,1 hPa 0,0 l/m 0 min 0 min 82 W/m 16,1 km/h (3 Bft) 97,83 %
20.01.2021 14:00 9,6 C 9,4 C 5,6 C 69 % 999,0 hPa 0,0 l/m 0 min 0 min 77 W/m 1,6 km/h (1 Bft) 95,74 %
20.01.2021 14:02 9,6 C 9,4 C 5,6 C 69 % 998,9 hPa 0,0 l/m 0 min 0 min 71 W/m 1,6 km/h (1 Bft) 97,87 %
20.01.2021 14:04 9,6 C 9,4 C 5,6 C 69 % 998,9 hPa 0,0 l/m 0 min 0 min 67 W/m 1,6 km/h (1 Bft) 97,87 %
20.01.2021 14:06 9,6 C 9,4 C 6,2 C 69 % 998,9 hPa 0,0 l/m 0 min 0 min 74 W/m 3,2 km/h (1 Bft) 97,87 %
20.01.2021 14:08 9,6 C 9,4 C 6,2 C 69 % 998,8 hPa 0,0 l/m 0 min 0 min 82 W/m 3,2 km/h (1 Bft) 97,87 %
20.01.2021 14:10 9,6 C 9,4 C 6,2 C 69 % 998,7 hPa 0,0 l/m 0 min 0 min 78 W/m 8,0 km/h (2 Bft) 97,83 %
20.01.2021 14:12 9,7 C 9,4 C 5,6 C 69 % 998,7 hPa 0,0 l/m 0 min 0 min 71 W/m 1,6 km/h (1 Bft) 94,74 %
20.01.2021 14:14 9,7 C 9,4 C 5,6 C 68 % 998,8 hPa 0,0 l/m 0 min 0 min 64 W/m 8,0 km/h (2 Bft) 97,87 %
20.01.2021 14:16 9,8 C 9,4 C 5,6 C 68 % 998,7 hPa 0,0 l/m 0 min 0 min 62 W/m 11,3 km/h (2 Bft) 97,83 %
20.01.2021 14:18 9,8 C 9,4 C 5,6 C 68 % 998,7 hPa 0,0 l/m 0 min 0 min 61 W/m 6,4 km/h (2 Bft) 95,74 %
20.01.2021 14:20 9,8 C 9,4 C 5,6 C 68 % 998,7 hPa 0,0 l/m 0 min 0 min 56 W/m 3,2 km/h (1 Bft) 97,87 %
20.01.2021 14:22 9,8 C 9,4 C 5,6 C 68 % 998,7 hPa 0,0 l/m 0 min 0 min 50 W/m 6,4 km/h (2 Bft) 95,74 %
20.01.2021 14:24 9,8 C 9,4 C 5,6 C 68 % 998,7 hPa 0,0 l/m 0 min 0 min 45 W/m 1,6 km/h (1 Bft) 97,87 %
20.01.2021 14:26 9,8 C 9,4 C 5,6 C 67 % 998,6 hPa 0,0 l/m 0 min 0 min 40 W/m 3,2 km/h (1 Bft) 97,87 %
20.01.2021 14:28 9,8 C 9,4 C 5,6 C 67 % 998,5 hPa 0,0 l/m 0 min 0 min 39 W/m 1,6 km/h (1 Bft) 97,83 %
20.01.2021 14:30 9,9 C 9,4 C 5,6 C 67 % 998,5 hPa 0,0 l/m 0 min 0 min 39 W/m 1,6 km/h (1 Bft) 97,87 %
20.01.2021 14:32 9,9 C 9,4 C 5,6 C 67 % 998,5 hPa 0,0 l/m 0 min 0 min 39 W/m 6,4 km/h (2 Bft) 97,87 %
20.01.2021 14:34 9,9 C 9,4 C 5,6 C 67 % 998,5 hPa 0,0 l/m 0 min 0 min 39 W/m 0,0 km/h (0 Bft) 93,62 %
20.01.2021 14:36 9,9 C 9,4 C 5,6 C 67 % 998,4 hPa 0,0 l/m 0 min 0 min 38 W/m 1,6 km/h (1 Bft) 97,87 %
20.01.2021 14:38 9,9 C 9,4 C 5,6 C 67 % 998,4 hPa 0,0 l/m 0 min 0 min 39 W/m 0,0 km/h (0 Bft) 97,87 %
20.01.2021 14:40 9,9 C 9,4 C 5,6 C 67 % 998,3 hPa 0,0 l/m 0 min 0 min 41 W/m 1,6 km/h (1 Bft) 97,83 %
20.01.2021 14:42 9,8 C 8,9 C 5,6 C 69 % 998,4 hPa 0,0 l/m 0 min 0 min 44 W/m 0,0 km/h (0 Bft) 97,87 %
20.01.2021 14:44 9,8 C 8,9 C 5,6 C 69 % 998,3 hPa 0,0 l/m 0 min 0 min 44 W/m 0,0 km/h (0 Bft) 97,87 %
20.01.2021 14:46 9,8 C 8,9 C 5,0 C 70 % 998,3 hPa 0,0 l/m 0 min 0 min 44 W/m 1,6 km/h (1 Bft) 91,49 %
20.01.2021 14:48 9,7 C 8,9 C 5,0 C 71 % 998,3 hPa 0,0 l/m 0 min 0 min 45 W/m 0,0 km/h (0 Bft) 97,87 %
20.01.2021 14:50 9,6 C 8,9 C 5,0 C 71 % 998,2 hPa 0,0 l/m 0 min 0 min 47 W/m 0,0 km/h (0 Bft) 95,74 %
20.01.2021 14:52 9,6 C 8,9 C 5,0 C 71 % 998,1 hPa 0,0 l/m 0 min 0 min 47 W/m 0,0 km/h (0 Bft) 97,87 %
20.01.2021 14:54 9,5 C 8,3 C 5,0 C 71 % 998,1 hPa 0,0 l/m 0 min 0 min 44 W/m 1,6 km/h (1 Bft) 97,83 %
20.01.2021 14:56 9,5 C 8,3 C 5,0 C 72 % 998,1 hPa 0,0 l/m 0 min 0 min 41 W/m 0,0 km/h (0 Bft) 95,74 %
20.01.2021 14:58 9,4 C 8,3 C 5,0 C 72 % 998,0 hPa 0,0 l/m 0 min 0 min 39 W/m 0,0 km/h (0 Bft) 97,87 %
20.01.2021 15:00 9,4 C 8,3 C 5,0 C 72 % 997,9 hPa 0,0 l/m 0 min 0 min 39 W/m 1,6 km/h (1 Bft) 97,87 %
20.01.2021 15:02 9,4 C 8,3 C 5,0 C 72 % 998,0 hPa 0,0 l/m 0 min 0 min 38 W/m 0,0 km/h (0 Bft) 97,87 %
20.01.2021 15:04 9,4 C 8,3 C 5,0 C 72 % 998,0 hPa 0,0 l/m 0 min 0 min 35 W/m 0,0 km/h (0 Bft) 95,65 %
20.01.2021 15:06 9,3 C 8,3 C 5,0 C 73 % 998,0 hPa 0,0 l/m 0 min 0 min 33 W/m 0,0 km/h (0 Bft) 98,21 %
20.01.2021 15:08 9,3 C 8,3 C 5,0 C 73 % 997,9 hPa 0,0 l/m 0 min 0 min 29 W/m 0,0 km/h (0 Bft) 97,96 %
20.01.2021 15:10 9,3 C 8,3 C 5,0 C 73 % 997,9 hPa 0,0 l/m 0 min 0 min 27 W/m 0,0 km/h (0 Bft) 93,62 %
20.01.2021 15:12 9,2 C 8,3 C 5,0 C 73 % 997,9 hPa 0,0 l/m 0 min 0 min 27 W/m 0,0 km/h (0 Bft) 97,87 %
20.01.2021 15:14 9,2 C 8,3 C 5,0 C 73 % 997,9 hPa 0,0 l/m 0 min 0 min 28 W/m 0,0 km/h (0 Bft) 95,74 %
20.01.2021 15:16 9,1 C 8,3 C 5,0 C 73 % 997,9 hPa 0,0 l/m 0 min 0 min 28 W/m 1,6 km/h (1 Bft) 97,73 %
20.01.2021 15:18 9,1 C 8,3 C 5,0 C 73 % 997,9 hPa 0,0 l/m 0 min 0 min 28 W/m 0,0 km/h (0 Bft) 97,87 %
20.01.2021 15:20 9,1 C 8,3 C 5,0 C 73 % 997,8 hPa 0,0 l/m 0 min 0 min 27 W/m 1,6 km/h (1 Bft) 97,83 %
20.01.2021 15:22 9,0 C 8,3 C 5,0 C 73 % 997,9 hPa 0,0 l/m 0 min 0 min 26 W/m 1,6 km/h (1 Bft) 95,74 %
20.01.2021 15:24 9,0 C 8,3 C 5,0 C 72 % 997,9 hPa 0,0 l/m 0 min 0 min 25 W/m 1,6 km/h (1 Bft) 95,74 %
20.01.2021 15:26 9,0 C 8,3 C 5,0 C 73 % 997,9 hPa 0,0 l/m 0 min 0 min 25 W/m 0,0 km/h (0 Bft) 95,74 %
20.01.2021 15:28 9,0 C 8,3 C 5,0 C 72 % 997,9 hPa 0,0 l/m 0 min 0 min 23 W/m 0,0 km/h (0 Bft) 91,49 %
20.01.2021 15:30 9,0 C 8,3 C 4,5 C 72 % 997,8 hPa 0,0 l/m 0 min 0 min 23 W/m 1,6 km/h (1 Bft) 93,62 %
20.01.2021 15:32 9,0 C 8,3 C 5,0 C 72 % 997,8 hPa 0,0 l/m 0 min 0 min 24 W/m 0,0 km/h (0 Bft) 95,65 %
20.01.2021 15:34 9,0 C 8,3 C 5,0 C 73 % 997,8 hPa 0,0 l/m 0 min 0 min 28 W/m 1,6 km/h (1 Bft) 97,87 %
20.01.2021 15:36 9,0 C 8,3 C 5,0 C 72 % 997,7 hPa 0,0 l/m 0 min 0 min 32 W/m 3,2 km/h (1 Bft) 97,87 %
20.01.2021 15:38 8,9 C 8,3 C 5,0 C 72 % 997,8 hPa 0,0 l/m 0 min 0 min 30 W/m 1,6 km/h (1 Bft) 97,87 %
20.01.2021 15:40 8,9 C 8,3 C 4,5 C 73 % 997,8 hPa 0,0 l/m 0 min 0 min 27 W/m 0,0 km/h (0 Bft) 95,74 %
20.01.2021 15:42 8,9 C 8,3 C 4,5 C 73 % 997,8 hPa 0,0 l/m 0 min 0 min 26 W/m 0,0 km/h (0 Bft) 97,87 %
20.01.2021 15:44 8,9 C 8,3 C 4,5 C 73 % 997,7 hPa 0,0 l/m 0 min 0 min 25 W/m 1,6 km/h (1 Bft) 97,83 %
20.01.2021 15:46 8,9 C 8,3 C 4,5 C 73 % 997,7 hPa 0,0 l/m 0 min 0 min 26 W/m 1,6 km/h (1 Bft) 97,87 %
20.01.2021 15:48 8,9 C 8,3 C 4,5 C 74 % 997,7 hPa 0,0 l/m 0 min 0 min 26 W/m 8,0 km/h (2 Bft) 97,87 %
20.01.2021 15:50 8,8 C 8,3 C 4,5 C 74 % 997,7 hPa 0,0 l/m 0 min 0 min 28 W/m 3,2 km/h (1 Bft) 95,74 %
20.01.2021 15:52 8,8 C 8,3 C 4,5 C 74 % 997,7 hPa 0,0 l/m 0 min 0 min 30 W/m 1,6 km/h (1 Bft) 97,87 %
20.01.2021 15:54 8,8 C 7,8 C 4,5 C 74 % 997,7 hPa 0,0 l/m 0 min 0 min 30 W/m 1,6 km/h (1 Bft) 97,87 %
20.01.2021 15:56 8,8 C 7,8 C 4,5 C 74 % 997,6 hPa 0,0 l/m 0 min 0 min 30 W/m 3,2 km/h (1 Bft) 97,83 %
20.01.2021 15:58 8,7 C 7,8 C 4,5 C 74 % 997,6 hPa 0,0 l/m 0 min 0 min 29 W/m 1,6 km/h (1 Bft) 97,87 %
20.01.2021 16:00 8,6 C 7,8 C 4,5 C 75 % 997,6 hPa 0,0 l/m 0 min 0 min 27 W/m 3,2 km/h (1 Bft) 95,74 %
20.01.2021 16:02 8,6 C 7,8 C 4,5 C 75 % 997,6 hPa 0,0 l/m 0 min 0 min 22 W/m 1,6 km/h (1 Bft) 93,62 %
20.01.2021 16:04 8,6 C 7,8 C 4,5 C 75 % 997,6 hPa 0,0 l/m 0 min 0 min 20 W/m 1,6 km/h (1 Bft) 97,87 %
20.01.2021 16:06 8,6 C 7,8 C 4,5 C 75 % 997,6 hPa 0,0 l/m 0 min 0 min 19 W/m 1,6 km/h (1 Bft) 97,87 %
20.01.2021 16:08 8,5 C 7,8 C 4,5 C 75 % 997,6 hPa 0,0 l/m 0 min 0 min 19 W/m 1,6 km/h (1 Bft) 97,83 %
20.01.2021 16:10 8,5 C 7,8 C 4,5 C 75 % 997,6 hPa 0,0 l/m 0 min 0 min 19 W/m 3,2 km/h (1 Bft) 95,74 %
20.01.2021 16:12 8,5 C 7,8 C 4,5 C 75 % 997,6 hPa 0,0 l/m 0 min 0 min 18 W/m 3,2 km/h (1 Bft) 100,00 %
20.01.2021 16:14 8,5 C 7,8 C 4,5 C 75 % 997,5 hPa 0,0 l/m 0 min 0 min 18 W/m 1,6 km/h (1 Bft) 100,00 %
20.01.2021 16:16 8,5 C 7,8 C 3,9 C 75 % 997,5 hPa 0,0 l/m 0 min 0 min 18 W/m 3,2 km/h (1 Bft) 100,00 %
20.01.2021 16:18 8,5 C 7,8 C 3,9 C 75 % 997,5 hPa 0,0 l/m 0 min 0 min 18 W/m 1,6 km/h (1 Bft) 100,00 %
20.01.2021 16:20 8,4 C 7,8 C 4,5 C 75 % 997,5 hPa 0,0 l/m 0 min 0 min 18 W/m 1,6 km/h (1 Bft) 100,00 %
20.01.2021 16:22 8,4 C 7,8 C 3,9 C 75 % 997,4 hPa 0,0 l/m 0 min 0 min 18 W/m 1,6 km/h (1 Bft) 100,00 %
20.01.2021 16:24 8,4 C 7,8 C 3,9 C 76 % 997,4 hPa 0,0 l/m 0 min 0 min 16 W/m 1,6 km/h (1 Bft) 100,00 %
20.01.2021 16:26 8,4 C 7,8 C 3,9 C 76 % 997,3 hPa 0,0 l/m 0 min 0 min 15 W/m 1,6 km/h (1 Bft) 97,87 %
20.01.2021 16:28 8,4 C 7,8 C 3,9 C 76 % 997,4 hPa 0,0 l/m 0 min 0 min 12 W/m 3,2 km/h (1 Bft) 100,00 %
20.01.2021 16:30 8,4 C 7,8 C 3,9 C 76 % 997,4 hPa 0,0 l/m 0 min 0 min 11 W/m 3,2 km/h (1 Bft) 100,00 %
20.01.2021 16:32 8,4 C 7,8 C 3,9 C 76 % 997,3 hPa 0,0 l/m 0 min 0 min 10 W/m 1,6 km/h (1 Bft) 100,00 %
20.01.2021 16:34 8,4 C 7,8 C 3,9 C 76 % 997,4 hPa 0,0 l/m 0 min 0 min 7 W/m 3,2 km/h (1 Bft) 100,00 %
20.01.2021 16:36 8,4 C 7,8 C 3,9 C 76 % 997,4 hPa 0,0 l/m 0 min 0 min 7 W/m 1,6 km/h (1 Bft) 100,00 %
20.01.2021 16:38 8,4 C 7,8 C 3,9 C 76 % 997,4 hPa 0,0 l/m 0 min 0 min 5 W/m 1,6 km/h (1 Bft) 100,00 %
20.01.2021 16:40 8,4 C 7,8 C 3,9 C 76 % 997,4 hPa 0,0 l/m 0 min 0 min 5 W/m 6,4 km/h (2 Bft) 100,00 %
20.01.2021 16:42 8,4 C 7,8 C 3,9 C 76 % 997,3 hPa 0,0 l/m 0 min 0 min 5 W/m 1,6 km/h (1 Bft) 100,00 %
20.01.2021 16:44 8,4 C 7,8 C 3,9 C 76 % 997,2 hPa 0,0 l/m 0 min 0 min 5 W/m 1,6 km/h (1 Bft) 100,00 %
20.01.2021 16:46 8,3 C 7,8 C 3,9 C 77 % 997,2 hPa 0,0 l/m 0 min 0 min 5 W/m 1,6 km/h (1 Bft) 100,00 %
20.01.2021 16:48 8,3 C 7,8 C 3,9 C 77 % 997,2 hPa 0,0 l/m 0 min 0 min 0 W/m 1,6 km/h (1 Bft) 100,00 %
20.01.2021 16:50 8,3 C 7,8 C 3,9 C 77 % 997,2 hPa 0,0 l/m 0 min 0 min 0 W/m 1,6 km/h (1 Bft) 97,87 %
20.01.2021 16:52 8,3 C 7,8 C 3,9 C 77 % 997,2 hPa 0,0 l/m 0 min 0 min 0 W/m 1,6 km/h (1 Bft) 100,00 %
20.01.2021 16:54 8,3 C 7,8 C 3,9 C 77 % 997,2 hPa 0,0 l/m 0 min 0 min 0 W/m 1,6 km/h (1 Bft) 100,00 %
20.01.2021 16:56 8,3 C 7,8 C 3,9 C 77 % 997,2 hPa 0,0 l/m 0 min 0 min 0 W/m 1,6 km/h (1 Bft) 100,00 %
20.01.2021 16:58 8,3 C 7,8 C 3,9 C 77 % 997,2 hPa 0,0 l/m 0 min 0 min 0 W/m 3,2 km/h (1 Bft) 95,74 %
20.01.2021 17:00 8,3 C 7,8 C 3,9 C 77 % 997,2 hPa 0,0 l/m 0 min 0 min 0 W/m 6,4 km/h (2 Bft) 97,87 %
20.01.2021 17:02 8,2 C 7,8 C 3,9 C 77 % 997,1 hPa 0,0 l/m 0 min 0 min 0 W/m 1,6 km/h (1 Bft) 100,00 %
20.01.2021 17:04 8,2 C 7,8 C 3,9 C 77 % 997,1 hPa 0,0 l/m 0 min 0 min 0 W/m 0,0 km/h (0 Bft) 97,87 %
20.01.2021 17:06 8,2 C 7,8 C 3,9 C 77 % 997,2 hPa 0,0 l/m 0 min 0 min 0 W/m 8,0 km/h (2 Bft) 100,00 %
20.01.2021 17:08 8,2 C 7,8 C 3,9 C 77 % 997,1 hPa 0,0 l/m 0 min 0 min 0 W/m 3,2 km/h (1 Bft) 100,00 %
20.01.2021 17:10 8,3 C 7,8 C 3,9 C 77 % 997,0 hPa 0,0 l/m 0 min 0 min 0 W/m 4,8 km/h (1 Bft) 100,00 %
20.01.2021 17:12 8,3 C 7,8 C 3,9 C 77 % 997,0 hPa 0,0 l/m 0 min 0 min 0 W/m 6,4 km/h (2 Bft) 100,00 %
20.01.2021 17:14 8,3 C 7,8 C 3,9 C 77 % 996,9 hPa 0,0 l/m 0 min 0 min 0 W/m 1,6 km/h (1 Bft) 100,00 %
20.01.2021 17:16 8,3 C 7,8 C 3,9 C 77 % 997,0 hPa 0,0 l/m 0 min 0 min 0 W/m 1,6 km/h (1 Bft) 97,96 %
20.01.2021 17:18 8,3 C 7,8 C 3,9 C 77 % 997,0 hPa 0,0 l/m 0 min 0 min 0 W/m 1,6 km/h (1 Bft) 100,00 %
20.01.2021 17:20 8,3 C 7,8 C 3,9 C 78 % 996,8 hPa 0,0 l/m 0 min 0 min 0 W/m 3,2 km/h (1 Bft) 100,00 %
20.01.2021 17:22 8,3 C 7,8 C 3,9 C 78 % 996,9 hPa 0,0 l/m 0 min 0 min 0 W/m 1,6 km/h (1 Bft) 100,00 %
20.01.2021 17:24 8,4 C 7,8 C 3,9 C 78 % 996,9 hPa 0,0 l/m 0 min 0 min 0 W/m 1,6 km/h (1 Bft) 100,00 %
20.01.2021 17:26 8,4 C 7,8 C 3,9 C 78 % 997,0 hPa 0,0 l/m 0 min 0 min 0 W/m 1,6 km/h (1 Bft) 100,00 %
20.01.2021 17:28 8,4 C 7,8 C 4,5 C 77 % 996,9 hPa 0,0 l/m 0 min 0 min 0 W/m 1,6 km/h (1 Bft) 100,00 %
20.01.2021 17:30 8,4 C 7,8 C 4,5 C 77 % 996,9 hPa 0,0 l/m 0 min 0 min 0 W/m 1,6 km/h (1 Bft) 100,00 %
20.01.2021 17:32 8,4 C 7,8 C 4,5 C 77 % 996,9 hPa 0,0 l/m 0 min 0 min 0 W/m 6,4 km/h (2 Bft) 97,87 %
20.01.2021 17:34 8,4 C 7,8 C 4,5 C 77 % 996,8 hPa 0,0 l/m 0 min 0 min 0 W/m 0,0 km/h (0 Bft) 97,92 %
20.01.2021 17:36 8,5 C 7,8 C 4,5 C 77 % 996,8 hPa 0,0 l/m 0 min 0 min 0 W/m 1,6 km/h (1 Bft) 91,49 %
20.01.2021 17:38 8,5 C 7,8 C 4,5 C 77 % 996,8 hPa 0,0 l/m 0 min 0 min 0 W/m 1,6 km/h (1 Bft) 93,62 %
20.01.2021 17:40 8,5 C 7,8 C 4,5 C 77 % 996,8 hPa 0,0 l/m 0 min 0 min 0 W/m 9,7 km/h (2 Bft) 95,74 %
20.01.2021 17:42 8,5 C 7,8 C 4,5 C 77 % 996,8 hPa 0,0 l/m 0 min 0 min 0 W/m 0,0 km/h (0 Bft) 95,74 %
20.01.2021 17:44 8,5 C 7,8 C 4,5 C 77 % 996,8 hPa 0,0 l/m 0 min 0 min 0 W/m 1,6 km/h (1 Bft) 93,62 %
20.01.2021 17:46 8,5 C 7,8 C 4,5 C 77 % 996,8 hPa 0,0 l/m 0 min 0 min 0 W/m 3,2 km/h (1 Bft) 95,65 %
20.01.2021 17:48 8,5 C 7,8 C 4,5 C 77 % 996,7 hPa 0,0 l/m 0 min 0 min 0 W/m 1,6 km/h (1 Bft) 95,74 %
20.01.2021 17:50 8,5 C 7,8 C 4,5 C 77 % 996,7 hPa 0,0 l/m 0 min 0 min 0 W/m 1,6 km/h (1 Bft) 93,62 %
20.01.2021 17:52 8,6 C 7,8 C 4,5 C 77 % 996,7 hPa 0,0 l/m 0 min 0 min 0 W/m 3,2 km/h (1 Bft) 95,74 %
20.01.2021 17:54 8,6 C 7,8 C 4,5 C 77 % 996,6 hPa 0,0 l/m 0 min 0 min 0 W/m 1,6 km/h (1 Bft) 95,74 %
20.01.2021 17:56 8,6 C 7,8 C 4,5 C 78 % 996,6 hPa 0,0 l/m 0 min 0 min 0 W/m 1,6 km/h (1 Bft) 95,74 %
20.01.2021 17:58 8,6 C 7,8 C 4,5 C 78 % 996,5 hPa 0,0 l/m 0 min 0 min 0 W/m 3,2 km/h (1 Bft) 95,65 %
20.01.2021 18:00 8,6 C 7,8 C 4,5 C 78 % 996,5 hPa 0,0 l/m 0 min 0 min 0 W/m 1,6 km/h (1 Bft) 93,62 %
20.01.2021 18:02 8,6 C 7,8 C 4,5 C 78 % 996,5 hPa 0,0 l/m 0 min 0 min 0 W/m 3,2 km/h (1 Bft) 93,62 %
20.01.2021 18:04 8,6 C 7,8 C 4,5 C 78 % 996,5 hPa 0,0 l/m 0 min 0 min 0 W/m 3,2 km/h (1 Bft) 95,74 %
20.01.2021 18:08 8,6 C 7,8 C 4,5 C 78 % 996,3 hPa 0,0 l/m 0 min 0 min 0 W/m 4,8 km/h (1 Bft) 93,62 %
20.01.2021 18:10 8,6 C 7,8 C 4,5 C 78 % 996,4 hPa 0,0 l/m 0 min 0 min 0 W/m 0,0 km/h (0 Bft) 93,48 %
20.01.2021 18:12 8,6 C 7,8 C 4,5 C 78 % 996,3 hPa 0,0 l/m 0 min 0 min 0 W/m 0,0 km/h (0 Bft) 93,62 %
20.01.2021 18:14 8,6 C 7,8 C 4,5 C 78 % 996,4 hPa 0,0 l/m 0 min 0 min 0 W/m 0,0 km/h (0 Bft) 93,62 %
20.01.2021 18:16 8,6 C 7,8 C 4,5 C 78 % 996,4 hPa 0,0 l/m 0 min 0 min 0 W/m 0,0 km/h (0 Bft) 93,62 %
20.01.2021 18:18 8,6 C 8,3 C 4,5 C 78 % 996,5 hPa 0,0 l/m 0 min 0 min 0 W/m 11,3 km/h (2 Bft) 93,62 %
20.01.2021 18:20 8,7 C 8,3 C 4,5 C 78 % 996,5 hPa 0,0 l/m 0 min 0 min 0 W/m 6,4 km/h (2 Bft) 91,49 %
20.01.2021 18:22 8,7 C 7,8 C 4,5 C 78 % 996,5 hPa 0,0 l/m 0 min 0 min 0 W/m 1,6 km/h (1 Bft) 95,65 %
20.01.2021 18:24 8,7 C 7,8 C 4,5 C 78 % 996,5 hPa 0,0 l/m 0 min 0 min 0 W/m 3,2 km/h (1 Bft) 95,74 %
20.01.2021 18:26 8,7 C 7,8 C 4,5 C 79 % 996,5 hPa 0,0 l/m 0 min 0 min 0 W/m 9,7 km/h (2 Bft) 93,62 %
20.01.2021 18:28 8,7 C 7,8 C 4,5 C 79 % 996,6 hPa 0,0 l/m 0 min 0 min 0 W/m 3,2 km/h (1 Bft) 95,74 %
20.01.2021 18:30 8,7 C 7,8 C 4,5 C 79 % 996,4 hPa 0,0 l/m 0 min 0 min 0 W/m 0,0 km/h (0 Bft) 93,62 %
20.01.2021 18:32 8,6 C 7,8 C 4,5 C 79 % 996,5 hPa 0,0 l/m 0 min 0 min 0 W/m 1,6 km/h (1 Bft) 97,14 %
20.01.2021 18:34 8,6 C 7,8 C 4,5 C 79 % 996,5 hPa 0,0 l/m 0 min 0 min 0 W/m 1,6 km/h (1 Bft) 95,74 %
20.01.2021 18:36 8,6 C 7,8 C 4,5 C 79 % 996,5 hPa 0,0 l/m 0 min 0 min 0 W/m 1,6 km/h (1 Bft) 93,10 %
20.01.2021 18:38 8,6 C 7,8 C 4,5 C 79 % 996,4 hPa 0,0 l/m 0 min 0 min 0 W/m 1,6 km/h (1 Bft) 95,74 %
20.01.2021 18:40 8,6 C 7,8 C 4,5 C 79 % 996,5 hPa 0,0 l/m 0 min 0 min 0 W/m 1,6 km/h (1 Bft) 100,00 %
20.01.2021 18:42 8,6 C 7,8 C 4,5 C 79 % 996,4 hPa 0,0 l/m 0 min 0 min 0 W/m 0,0 km/h (0 Bft) 93,62 %
20.01.2021 18:44 8,6 C 7,8 C 4,5 C 79 % 996,4 hPa 0,0 l/m 0 min 0 min 0 W/m 6,4 km/h (2 Bft) 97,87 %
20.01.2021 18:46 8,6 C 7,8 C 4,5 C 79 % 996,4 hPa 0,0 l/m 0 min 0 min 0 W/m 1,6 km/h (1 Bft) 95,74 %
20.01.2021 18:48 8,7 C 8,3 C 4,5 C 79 % 996,4 hPa 0,0 l/m 0 min 0 min 0 W/m 4,8 km/h (1 Bft) 97,83 %
20.01.2021 18:50 8,7 C 8,3 C 4,5 C 80 % 996,2 hPa 0,0 l/m 0 min 0 min 0 W/m 1,6 km/h (1 Bft) 97,87 %
20.01.2021 18:52 8,7 C 8,3 C 4,5 C 80 % 996,3 hPa 0,0 l/m 0 min 0 min 0 W/m 1,6 km/h (1 Bft) 45,95 %
20.01.2021 18:54 8,8 C 8,3 C 4,5 C 80 % 996,3 hPa 0,0 l/m 0 min 0 min 0 W/m 1,6 km/h (1 Bft) 98,31 %
20.01.2021 18:56 8,8 C 8,3 C 4,5 C 80 % 996,4 hPa 0,0 l/m 0 min 0 min 0 W/m 4,8 km/h (1 Bft) 97,14 %
20.01.2021 18:58 8,8 C 8,3 C 4,5 C 80 % 996,3 hPa 0,0 l/m 0 min 0 min 0 W/m 4,8 km/h (1 Bft) 100,00 %
20.01.2021 19:00 8,8 C 8,3 C 4,5 C 80 % 996,4 hPa 0,0 l/m 0 min 0 min 0 W/m 1,6 km/h (1 Bft) 100,00 %
20.01.2021 19:02 8,8 C 8,3 C 5,0 C 80 % 996,4 hPa 0,0 l/m 0 min 0 min 0 W/m 3,2 km/h (1 Bft) 100,00 %
20.01.2021 19:04 8,8 C 8,3 C 5,0 C 80 % 996,4 hPa 0,0 l/m 0 min 0 min 0 W/m 1,6 km/h (1 Bft) 100,00 %
20.01.2021 19:06 8,9 C 8,3 C 5,0 C 80 % 996,4 hPa 0,0 l/m 0 min 0 min 0 W/m 0,0 km/h (0 Bft) 97,87 %
20.01.2021 19:08 8,8 C 8,3 C 5,0 C 80 % 996,4 hPa 0,0 l/m 0 min 0 min 0 W/m 0,0 km/h (0 Bft) 100,00 %
20.01.2021 19:10 8,9 C 8,3 C 5,0 C 80 % 996,3 hPa 0,0 l/m 0 min 0 min 0 W/m 3,2 km/h (1 Bft) 100,00 %
20.01.2021 19:12 8,9 C 8,3 C 5,0 C 80 % 996,4 hPa 0,0 l/m 0 min 0 min 0 W/m 9,7 km/h (2 Bft) 100,00 %
20.01.2021 19:14 8,9 C 8,3 C 4,5 C 80 % 996,3 hPa 0,0 l/m 0 min 0 min 0 W/m 1,6 km/h (1 Bft) 100,00 %
20.01.2021 19:16 8,9 C 8,3 C 4,5 C 80 % 996,3 hPa 0,0 l/m 0 min 0 min 0 W/m 3,2 km/h (1 Bft) 100,00 %
20.01.2021 19:18 8,9 C 8,3 C 4,5 C 80 % 996,3 hPa 0,0 l/m 0 min 0 min 0 W/m 3,2 km/h (1 Bft) 98,21 %
20.01.2021 19:20 8,9 C 8,3 C 5,0 C 80 % 996,3 hPa 0,0 l/m 0 min 0 min 0 W/m 3,2 km/h (1 Bft) 100,00 %
20.01.2021 19:22 8,9 C 8,3 C 5,0 C 80 % 996,3 hPa 0,0 l/m 0 min 0 min 0 W/m 1,6 km/h (1 Bft) 100,00 %
20.01.2021 19:24 8,9 C 8,3 C 5,0 C 80 % 996,2 hPa 0,0 l/m 0 min 0 min 0 W/m 0,0 km/h (0 Bft) 100,00 %
20.01.2021 19:26 8,9 C 8,3 C 5,0 C 80 % 996,2 hPa 0,0 l/m 0 min 0 min 0 W/m 3,2 km/h (1 Bft) 100,00 %
20.01.2021 19:28 8,9 C 8,3 C 5,0 C 80 % 996,2 hPa 0,0 l/m 0 min 0 min 0 W/m 1,6 km/h (1 Bft) 100,00 %
20.01.2021 19:30 8,9 C 8,3 C 5,0 C 80 % 996,2 hPa 0,0 l/m 0 min 0 min 0 W/m 0,0 km/h (0 Bft) 100,00 %
20.01.2021 19:32 8,9 C 8,3 C 5,0 C 80 % 996,2 hPa 0,0 l/m 0 min 0 min 0 W/m 0,0 km/h (0 Bft) 100,00 %
20.01.2021 19:34 8,9 C 8,3 C 5,0 C 80 % 996,2 hPa 0,0 l/m 0 min 0 min 0 W/m 3,2 km/h (1 Bft) 100,00 %
20.01.2021 19:36 8,9 C 8,3 C 5,0 C 80 % 996,2 hPa 0,0 l/m 0 min 0 min 0 W/m 0,0 km/h (0 Bft) 100,00 %
20.01.2021 19:38 8,9 C 8,3 C 5,0 C 80 % 996,2 hPa 0,0 l/m 0 min 0 min 0 W/m 1,6 km/h (1 Bft) 100,00 %
20.01.2021 19:40 8,9 C 8,3 C 5,0 C 80 % 996,2 hPa 0,0 l/m 0 min 0 min 0 W/m 1,6 km/h (1 Bft) 100,00 %
20.01.2021 19:42 8,9 C 8,3 C 5,0 C 80 % 996,3 hPa 0,0 l/m 0 min 0 min 0 W/m 3,2 km/h (1 Bft) 100,00 %
20.01.2021 19:44 8,9 C 8,3 C 5,0 C 81 % 996,2 hPa 0,0 l/m 0 min 0 min 0 W/m 1,6 km/h (1 Bft) 100,00 %
20.01.2021 19:46 8,9 C 8,3 C 5,0 C 81 % 996,2 hPa 0,0 l/m 0 min 0 min 0 W/m 4,8 km/h (1 Bft) 100,00 %
20.01.2021 19:48 8,9 C 8,3 C 5,0 C 81 % 996,1 hPa 0,0 l/m 0 min 0 min 0 W/m 3,2 km/h (1 Bft) 100,00 %
20.01.2021 19:50 8,9 C 8,3 C 5,0 C 81 % 996,1 hPa 0,0 l/m 0 min 0 min 0 W/m 3,2 km/h (1 Bft) 100,00 %
20.01.2021 19:52 8,9 C 8,3 C 5,0 C 81 % 996,1 hPa 0,0 l/m 0 min 0 min 0 W/m 12,9 km/h (3 Bft) 100,00 %
20.01.2021 19:54 8,9 C 8,3 C 5,0 C 81 % 996,0 hPa 0,0 l/m 0 min 0 min 0 W/m 8,0 km/h (2 Bft) 100,00 %
20.01.2021 19:56 9,0 C 8,3 C 5,0 C 81 % 996,0 hPa 0,0 l/m 0 min 0 min 0 W/m 3,2 km/h (1 Bft) 97,87 %
20.01.2021 19:58 9,0 C 8,3 C 5,0 C 81 % 996,0 hPa 0,0 l/m 0 min 0 min 0 W/m 0,0 km/h (0 Bft) 97,87 %
20.01.2021 20:00 9,0 C 8,3 C 5,0 C 81 % 995,9 hPa 0,0 l/m 0 min 0 min 0 W/m 3,2 km/h (1 Bft) 97,87 %
20.01.2021 20:02 9,0 C 8,3 C 5,0 C 81 % 995,9 hPa 0,0 l/m 0 min 0 min 0 W/m 1,6 km/h (1 Bft) 100,00 %
20.01.2021 20:04 8,9 C 8,3 C 5,0 C 81 % 996,0 hPa 0,0 l/m 0 min 0 min 0 W/m 3,2 km/h (1 Bft) 100,00 %
20.01.2021 20:06 9,0 C 8,3 C 5,0 C 81 % 995,9 hPa 0,0 l/m 0 min 0 min 0 W/m 3,2 km/h (1 Bft) 100,00 %
20.01.2021 20:08 9,0 C 8,3 C 5,0 C 81 % 995,9 hPa 0,0 l/m 0 min 0 min 0 W/m 9,7 km/h (2 Bft) 100,00 %
20.01.2021 20:10 9,0 C 8,3 C 5,0 C 81 % 995,9 hPa 0,0 l/m 0 min 0 min 0 W/m 1,6 km/h (1 Bft) 100,00 %
20.01.2021 20:12 9,0 C 8,3 C 5,0 C 81 % 995,9 hPa 0,0 l/m 0 min 0 min 0 W/m 3,2 km/h (1 Bft) 100,00 %
20.01.2021 20:14 9,0 C 8,3 C 5,0 C 81 % 995,8 hPa 0,0 l/m 0 min 0 min 0 W/m 1,6 km/h (1 Bft) 100,00 %
20.01.2021 20:16 9,0 C 8,3 C 5,0 C 81 % 995,8 hPa 0,0 l/m 0 min 0 min 0 W/m 3,2 km/h (1 Bft) 100,00 %
20.01.2021 20:18 9,0 C 8,3 C 5,0 C 81 % 995,7 hPa 0,0 l/m 0 min 0 min 0 W/m 0,0 km/h (0 Bft) 100,00 %
20.01.2021 20:20 9,0 C 8,3 C 5,0 C 82 % 995,7 hPa 0,0 l/m 0 min 0 min 0 W/m 1,6 km/h (1 Bft) 100,00 %
20.01.2021 20:22 9,0 C 8,3 C 5,0 C 82 % 995,6 hPa 0,0 l/m 0 min 0 min 0 W/m 1,6 km/h (1 Bft) 97,87 %
20.01.2021 20:24 9,0 C 8,3 C 5,0 C 82 % 995,6 hPa 0,0 l/m 0 min 0 min 0 W/m 1,6 km/h (1 Bft) 97,87 %
20.01.2021 20:26 9,0 C 8,3 C 5,0 C 82 % 995,6 hPa 0,0 l/m 0 min 0 min 0 W/m 0,0 km/h (0 Bft) 97,87 %
20.01.2021 20:27 9,0 C 8,3 C 5,0 C 82 % 995,6 hPa 0,0 l/m 0 min 0 min 0 W/m 1,6 km/h (1 Bft) 55,56 %
20.01.2021 20:30 9,0 C 8,3 C 5,0 C 82 % 995,5 hPa 0,0 l/m 0 min 0 min 0 W/m 9,7 km/h (2 Bft) 95,74 %
20.01.2021 20:32 9,0 C 8,3 C 5,0 C 82 % 995,5 hPa 0,0 l/m 0 min 0 min 0 W/m 1,6 km/h (1 Bft) 97,87 %
20.01.2021 20:34 9,0 C 8,3 C 5,0 C 82 % 995,5 hPa 0,0 l/m 0 min 0 min 0 W/m 8,0 km/h (2 Bft) 97,87 %
20.01.2021 20:36 9,1 C 8,3 C 5,0 C 82 % 995,4 hPa 0,0 l/m 0 min 0 min 0 W/m 1,6 km/h (1 Bft) 93,62 %
20.01.2021 20:38 9,1 C 8,3 C 5,0 C 82 % 995,5 hPa 0,0 l/m 0 min 0 min 0 W/m 3,2 km/h (1 Bft) 91,49 %
20.01.2021 20:40 9,1 C 8,3 C 5,0 C 82 % 995,4 hPa 0,0 l/m 0 min 0 min 0 W/m 3,2 km/h (1 Bft) 97,83 %
20.01.2021 20:42 9,1 C 8,3 C 5,0 C 82 % 995,4 hPa 0,0 l/m 0 min 0 min 0 W/m 3,2 km/h (1 Bft) 97,87 %
20.01.2021 20:44 9,1 C 8,9 C 5,6 C 82 % 995,4 hPa 0,0 l/m 0 min 0 min 0 W/m 1,6 km/h (1 Bft) 95,74 %
20.01.2021 20:46 9,2 C 8,9 C 5,6 C 82 % 995,3 hPa 0,0 l/m 0 min 0 min 0 W/m 6,4 km/h (2 Bft) 95,74 %
20.01.2021 20:48 9,3 C 8,9 C 5,6 C 82 % 995,3 hPa 0,0 l/m 0 min 0 min 0 W/m 3,2 km/h (1 Bft) 97,87 %
20.01.2021 20:50 9,3 C 8,9 C 5,6 C 81 % 995,4 hPa 0,0 l/m 0 min 0 min 0 W/m 3,2 km/h (1 Bft) 95,65 %
20.01.2021 20:52 9,3 C 8,9 C 5,6 C 81 % 995,3 hPa 0,0 l/m 0 min 0 min 0 W/m 1,6 km/h (1 Bft) 95,74 %
20.01.2021 20:54 9,3 C 8,9 C 5,6 C 81 % 995,3 hPa 0,0 l/m 0 min 0 min 0 W/m 1,6 km/h (1 Bft) 93,62 %
20.01.2021 20:56 9,3 C 8,9 C 5,6 C 81 % 995,3 hPa 0,0 l/m 0 min 0 min 0 W/m 6,4 km/h (2 Bft) 93,62 %
20.01.2021 20:58 9,3 C 8,9 C 5,6 C 81 % 995,4 hPa 0,0 l/m 0 min 0 min 0 W/m 1,6 km/h (1 Bft) 95,74 %
20.01.2021 21:00 9,3 C 8,3 C 5,6 C 81 % 995,3 hPa 0,0 l/m 0 min 0 min 0 W/m 1,6 km/h (1 Bft) 95,74 %
20.01.2021 21:02 9,3 C 8,3 C 5,0 C 81 % 995,2 hPa 0,0 l/m 0 min 0 min 0 W/m 0,0 km/h (0 Bft) 95,65 %
20.01.2021 21:04 9,3 C 8,3 C 5,6 C 81 % 995,2 hPa 0,0 l/m 0 min 0 min 0 W/m 1,6 km/h (1 Bft) 97,87 %
20.01.2021 21:06 9,3 C 8,3 C 5,0 C 81 % 995,2 hPa 0,0 l/m 0 min 0 min 0 W/m 0,0 km/h (0 Bft) 95,74 %
20.01.2021 21:08 9,3 C 8,3 C 5,0 C 81 % 995,2 hPa 0,0 l/m 0 min 0 min 0 W/m 1,6 km/h (1 Bft) 93,62 %
20.01.2021 21:10 9,3 C 8,3 C 5,6 C 82 % 995,1 hPa 0,0 l/m 0 min 0 min 0 W/m 0,0 km/h (0 Bft) 97,87 %
20.01.2021 21:12 9,3 C 8,3 C 5,6 C 82 % 995,1 hPa 0,0 l/m 0 min 0 min 0 W/m 1,6 km/h (1 Bft) 97,87 %
20.01.2021 21:14 9,3 C 8,3 C 5,0 C 82 % 995,2 hPa 0,0 l/m 0 min 0 min 0 W/m 1,6 km/h (1 Bft) 97,83 %
20.01.2021 21:16 9,3 C 8,3 C 5,0 C 82 % 995,0 hPa 0,0 l/m 0 min 0 min 0 W/m 1,6 km/h (1 Bft) 97,87 %
20.01.2021 21:18 9,3 C 8,3 C 5,0 C 82 % 995,0 hPa 0,0 l/m 0 min 0 min 0 W/m 1,6 km/h (1 Bft) 97,87 %
20.01.2021 21:20 9,2 C 8,3 C 5,6 C 82 % 994,9 hPa 0,0 l/m 0 min 0 min 0 W/m 1,6 km/h (1 Bft) 97,67 %
20.01.2021 21:22 9,2 C 8,3 C 5,0 C 82 % 994,9 hPa 0,0 l/m 0 min 0 min 0 W/m 0,0 km/h (0 Bft) 95,74 %
20.01.2021 21:24 9,2 C 8,3 C 5,6 C 82 % 994,9 hPa 0,0 l/m 0 min 0 min 0 W/m 1,6 km/h (1 Bft) 91,49 %
20.01.2021 21:26 9,2 C 8,3 C 5,6 C 82 % 994,8 hPa 0,0 l/m 0 min 0 min 0 W/m 1,6 km/h (1 Bft) 95,74 %
20.01.2021 21:28 9,2 C 8,3 C 5,6 C 82 % 994,9 hPa 0,0 l/m 0 min 0 min 0 W/m 1,6 km/h (1 Bft) 95,65 %
20.01.2021 21:30 9,2 C 8,3 C 5,6 C 82 % 994,9 hPa 0,0 l/m 0 min 0 min 0 W/m 0,0 km/h (0 Bft) 95,74 %
20.01.2021 21:32 9,2 C 8,3 C 5,6 C 82 % 994,8 hPa 0,0 l/m 0 min 0 min 0 W/m 1,6 km/h (1 Bft) 93,62 %
20.01.2021 21:34 9,2 C 8,3 C 5,6 C 82 % 994,8 hPa 0,0 l/m 0 min 0 min 0 W/m 1,6 km/h (1 Bft) 95,74 %
20.01.2021 21:36 9,2 C 8,3 C 5,6 C 82 % 994,8 hPa 0,0 l/m 0 min 0 min 0 W/m 0,0 km/h (0 Bft) 95,74 %
20.01.2021 21:38 9,2 C 8,3 C 5,0 C 82 % 994,7 hPa 0,0 l/m 0 min 0 min 0 W/m 1,6 km/h (1 Bft) 95,65 %
20.01.2021 21:40 9,1 C 8,3 C 5,0 C 82 % 994,6 hPa 0,0 l/m 0 min 0 min 0 W/m 1,6 km/h (1 Bft) 97,87 %
20.01.2021 21:42 9,1 C 8,3 C 5,0 C 82 % 994,6 hPa 0,0 l/m 0 min 0 min 0 W/m 0,0 km/h (0 Bft) 98,00 %
20.01.2021 21:44 9,1 C 8,3 C 5,0 C 82 % 994,6 hPa 0,0 l/m 0 min 0 min 0 W/m 1,6 km/h (1 Bft) 97,96 %
20.01.2021 21:46 9,1 C 8,3 C 5,6 C 82 % 994,6 hPa 0,0 l/m 0 min 0 min 0 W/m 1,6 km/h (1 Bft) 100,00 %
20.01.2021 21:48 9,1 C 8,3 C 5,6 C 83 % 994,5 hPa 0,0 l/m 0 min 0 min 0 W/m 1,6 km/h (1 Bft) 97,87 %
20.01.2021 21:50 9,1 C 8,3 C 5,6 C 83 % 994,4 hPa 0,0 l/m 0 min 0 min 0 W/m 1,6 km/h (1 Bft) 97,87 %
20.01.2021 21:52 9,1 C 8,3 C 5,6 C 83 % 994,5 hPa 0,0 l/m 0 min 0 min 0 W/m 1,6 km/h (1 Bft) 97,87 %
20.01.2021 21:54 9,1 C 8,9 C 5,6 C 83 % 994,5 hPa 0,0 l/m 0 min 0 min 0 W/m 0,0 km/h (0 Bft) 97,83 %
20.01.2021 21:56 9,2 C 8,9 C 5,6 C 82 % 994,4 hPa 0,0 l/m 0 min 0 min 0 W/m 0,0 km/h (0 Bft) 95,74 %
20.01.2021 21:58 9,2 C 8,9 C 5,6 C 82 % 994,4 hPa 0,0 l/m 0 min 0 min 0 W/m 0,0 km/h (0 Bft) 95,83 %
20.01.2021 22:00 9,3 C 8,9 C 5,6 C 82 % 994,4 hPa 0,0 l/m 0 min 0 min 0 W/m 1,6 km/h (1 Bft) 97,87 %
20.01.2021 22:02 9,3 C 8,9 C 5,6 C 82 % 994,4 hPa 0,0 l/m 0 min 0 min 0 W/m 1,6 km/h (1 Bft) 95,65 %
20.01.2021 22:04 9,3 C 8,9 C 5,6 C 82 % 994,4 hPa 0,0 l/m 0 min 0 min 0 W/m 1,6 km/h (1 Bft) 97,87 %
20.01.2021 22:06 9,4 C 8,9 C 5,6 C 82 % 994,3 hPa 0,0 l/m 0 min 0 min 0 W/m 1,6 km/h (1 Bft) 97,87 %
20.01.2021 22:08 9,4 C 8,9 C 5,6 C 82 % 994,3 hPa 0,0 l/m 0 min 0 min 0 W/m 3,2 km/h (1 Bft) 95,74 %
20.01.2021 22:10 9,4 C 9,4 C 6,2 C 82 % 994,3 hPa 0,0 l/m 0 min 0 min 0 W/m 1,6 km/h (1 Bft) 97,87 %
20.01.2021 22:12 9,5 C 9,4 C 6,2 C 81 % 994,2 hPa 0,0 l/m 0 min 0 min 0 W/m 1,6 km/h (1 Bft) 97,83 %
20.01.2021 22:14 9,5 C 9,4 C 6,2 C 81 % 994,3 hPa 0,0 l/m 0 min 0 min 0 W/m 0,0 km/h (0 Bft) 93,62 %
20.01.2021 22:16 9,6 C 9,4 C 6,2 C 81 % 994,3 hPa 0,0 l/m 0 min 0 min 0 W/m 1,6 km/h (1 Bft) 97,87 %
20.01.2021 22:18 9,6 C 9,4 C 6,2 C 81 % 994,2 hPa 0,0 l/m 0 min 0 min 0 W/m 1,6 km/h (1 Bft) 97,87 %
20.01.2021 22:20 9,6 C 9,4 C 6,2 C 81 % 994,2 hPa 0,0 l/m 0 min 0 min 0 W/m 1,6 km/h (1 Bft) 97,87 %
20.01.2021 22:22 9,7 C 9,4 C 6,2 C 81 % 994,2 hPa 0,0 l/m 0 min 0 min 0 W/m 3,2 km/h (1 Bft) 97,87 %
20.01.2021 22:24 9,8 C 9,4 C 6,2 C 80 % 994,2 hPa 0,0 l/m 0 min 0 min 0 W/m 0,0 km/h (0 Bft) 97,83 %
20.01.2021 22:26 9,8 C 9,4 C 6,2 C 80 % 994,2 hPa 0,0 l/m 0 min 0 min 0 W/m 1,6 km/h (1 Bft) 97,87 %
20.01.2021 22:28 9,8 C 9,4 C 6,2 C 80 % 994,2 hPa 0,0 l/m 0 min 0 min 0 W/m 0,0 km/h (0 Bft) 100,00 %
20.01.2021 22:30 9,8 C 9,4 C 6,2 C 80 % 994,2 hPa 0,0 l/m 0 min 0 min 0 W/m 6,4 km/h (2 Bft) 97,87 %
20.01.2021 22:32 9,8 C 9,4 C 6,2 C 80 % 994,2 hPa 0,0 l/m 0 min 0 min 0 W/m 0,0 km/h (0 Bft) 100,00 %
20.01.2021 22:34 9,8 C 9,4 C 6,2 C 80 % 994,1 hPa 0,0 l/m 0 min 0 min 0 W/m 3,2 km/h (1 Bft) 100,00 %
20.01.2021 22:36 9,9 C 9,4 C 6,2 C 80 % 994,1 hPa 0,0 l/m 0 min 0 min 0 W/m 0,0 km/h (0 Bft) 100,00 %
20.01.2021 22:38 9,9 C 9,4 C 6,2 C 80 % 994,1 hPa 0,0 l/m 0 min 0 min 0 W/m 1,6 km/h (1 Bft) 100,00 %
20.01.2021 22:40 9,9 C 9,4 C 6,2 C 80 % 994,1 hPa 0,0 l/m 0 min 0 min 0 W/m 0,0 km/h (0 Bft) 97,87 %
20.01.2021 22:42 9,9 C 9,4 C 6,2 C 80 % 994,1 hPa 0,0 l/m 0 min 0 min 0 W/m 3,2 km/h (1 Bft) 100,00 %
20.01.2021 22:44 9,9 C 9,4 C 6,2 C 80 % 994,1 hPa 0,0 l/m 0 min 0 min 0 W/m 1,6 km/h (1 Bft) 97,87 %
20.01.2021 22:46 9,9 C 9,4 C 6,2 C 80 % 994,1 hPa 0,0 l/m 0 min 0 min 0 W/m 0,0 km/h (0 Bft) 100,00 %
20.01.2021 22:48 9,9 C 9,4 C 6,2 C 80 % 994,1 hPa 0,0 l/m 0 min 0 min 0 W/m 1,6 km/h (1 Bft) 97,83 %
20.01.2021 22:50 9,9 C 9,4 C 6,2 C 80 % 994,1 hPa 0,0 l/m 0 min 0 min 0 W/m 3,2 km/h (1 Bft) 100,00 %
20.01.2021 22:52 10,0 C 9,4 C 6,2 C 79 % 994,0 hPa 0,0 l/m 0 min 0 min 0 W/m 3,2 km/h (1 Bft) 95,74 %
20.01.2021 22:54 9,9 C 9,4 C 6,2 C 79 % 994,1 hPa 0,0 l/m 0 min 0 min 0 W/m 1,6 km/h (1 Bft) 100,00 %
20.01.2021 22:56 10,0 C 9,4 C 6,2 C 79 % 994,0 hPa 0,0 l/m 0 min 0 min 0 W/m 8,0 km/h (2 Bft) 100,00 %
20.01.2021 22:58 10,0 C 9,4 C 6,2 C 79 % 994,0 hPa 0,0 l/m 0 min 0 min 0 W/m 3,2 km/h (1 Bft) 100,00 %
20.01.2021 23:00 10,0 C 9,4 C 6,2 C 79 % 993,9 hPa 0,0 l/m 0 min 0 min 0 W/m 1,6 km/h (1 Bft) 100,00 %
20.01.2021 23:02 10,0 C 9,4 C 6,2 C 79 % 993,9 hPa 0,0 l/m 0 min 0 min 0 W/m 1,6 km/h (1 Bft) 97,87 %
20.01.2021 23:04 10,0 C 9,4 C 6,2 C 79 % 993,8 hPa 0,0 l/m 0 min 0 min 0 W/m 1,6 km/h (1 Bft) 97,87 %
20.01.2021 23:06 10,0 C 9,4 C 6,2 C 79 % 993,7 hPa 0,0 l/m 0 min 0 min 0 W/m 1,6 km/h (1 Bft) 97,87 %
20.01.2021 23:08 10,0 C 9,4 C 6,2 C 79 % 993,7 hPa 0,0 l/m 0 min 0 min 0 W/m 1,6 km/h (1 Bft) 97,87 %
20.01.2021 23:10 10,0 C 9,4 C 6,2 C 79 % 993,7 hPa 0,0 l/m 0 min 0 min 0 W/m 1,6 km/h (1 Bft) 97,87 %
20.01.2021 23:12 10,0 C 9,4 C 6,2 C 79 % 993,7 hPa 0,0 l/m 0 min 0 min 0 W/m 1,6 km/h (1 Bft) 97,83 %
20.01.2021 23:14 10,0 C 9,4 C 6,2 C 79 % 993,7 hPa 0,0 l/m 0 min 0 min 0 W/m 1,6 km/h (1 Bft) 93,62 %
20.01.2021 23:16 10,0 C 9,4 C 6,2 C 79 % 993,7 hPa 0,0 l/m 0 min 0 min 0 W/m 0,0 km/h (0 Bft) 97,87 %
20.01.2021 23:18 10,0 C 9,4 C 6,2 C 79 % 993,6 hPa 0,0 l/m 0 min 0 min 0 W/m 0,0 km/h (0 Bft) 97,87 %
20.01.2021 23:20 10,0 C 9,4 C 6,2 C 79 % 993,6 hPa 0,0 l/m 0 min 0 min 0 W/m 0,0 km/h (0 Bft) 97,87 %
20.01.2021 23:22 10,0 C 9,4 C 6,2 C 79 % 993,6 hPa 0,0 l/m 0 min 0 min 0 W/m 3,2 km/h (1 Bft) 94,59 %
20.01.2021 23:24 10,0 C 9,4 C 6,2 C 79 % 993,6 hPa 0,0 l/m 0 min 0 min 0 W/m 0,0 km/h (0 Bft) 97,87 %
20.01.2021 23:26 10,0 C 9,4 C 6,2 C 79 % 993,5 hPa 0,0 l/m 0 min 0 min 0 W/m 1,6 km/h (1 Bft) 97,87 %
20.01.2021 23:28 10,0 C 9,4 C 6,2 C 79 % 993,5 hPa 0,0 l/m 0 min 0 min 0 W/m 1,6 km/h (1 Bft) 97,87 %
20.01.2021 23:30 10,0 C 9,4 C 6,2 C 79 % 993,5 hPa 0,0 l/m 0 min 0 min 0 W/m 1,6 km/h (1 Bft) 97,87 %
20.01.2021 23:32 10,0 C 9,4 C 6,2 C 79 % 993,5 hPa 0,0 l/m 0 min 0 min 0 W/m 0,0 km/h (0 Bft) 91,84 %
20.01.2021 23:34 10,0 C 9,4 C 6,2 C 79 % 993,5 hPa 0,0 l/m 0 min 0 min 0 W/m 1,6 km/h (1 Bft) 95,74 %
20.01.2021 23:36 10,0 C 9,4 C 6,2 C 79 % 993,5 hPa 0,0 l/m 0 min 0 min 0 W/m 1,6 km/h (1 Bft) 97,87 %
20.01.2021 23:38 10,0 C 9,4 C 6,2 C 79 % 993,5 hPa 0,0 l/m 0 min 0 min 0 W/m 1,6 km/h (1 Bft) 97,87 %
20.01.2021 23:40 10,0 C 9,4 C 6,2 C 79 % 993,4 hPa 0,0 l/m 0 min 0 min 0 W/m 11,3 km/h (2 Bft) 93,62 %
20.01.2021 23:42 10,0 C 9,4 C 6,2 C 79 % 993,5 hPa 0,0 l/m 0 min 0 min 0 W/m 1,6 km/h (1 Bft) 95,65 %
20.01.2021 23:44 10,0 C 9,4 C 6,2 C 79 % 993,4 hPa 0,0 l/m 0 min 0 min 0 W/m 6,4 km/h (2 Bft) 93,62 %
20.01.2021 23:46 10,1 C 9,4 C 6,2 C 79 % 993,3 hPa 0,0 l/m 0 min 0 min 0 W/m 1,6 km/h (1 Bft) 95,74 %
20.01.2021 23:48 10,1 C 9,4 C 6,2 C 79 % 993,3 hPa 0,0 l/m 0 min 0 min 0 W/m 3,2 km/h (1 Bft) 93,62 %
20.01.2021 23:50 10,1 C 9,4 C 6,2 C 79 % 993,2 hPa 0,0 l/m 0 min 0 min 0 W/m 1,6 km/h (1 Bft) 97,87 %
20.01.2021 23:52 10,1 C 9,4 C 6,2 C 78 % 993,2 hPa 0,0 l/m 0 min 0 min 0 W/m 1,6 km/h (1 Bft) 95,74 %
20.01.2021 23:54 10,1 C 9,4 C 6,2 C 78 % 993,0 hPa 0,0 l/m 0 min 0 min 0 W/m 16,1 km/h (3 Bft) 95,65 %
20.01.2021 23:56 10,1 C 9,4 C 6,2 C 78 % 993,0 hPa 0,0 l/m 0 min 0 min 0 W/m 1,6 km/h (1 Bft) 95,74 %
20.01.2021 23:58 10,1 C 9,4 C 6,2 C 78 % 993,0 hPa 0,0 l/m 0 min 0 min 0 W/m 1,6 km/h (1 Bft) 97,87 %
_ Min-Zeit 00:40 00:00 01:42 13:20 23:54 - - - - 00:12 18:52
Minimum _ 6,2 C 5,6 C 3,4 C 67 % 993,0 hPa - - - - 0,0 km/h (0 Bft) 45,95 %
_ Max-Zeit 23:46 11:58 12:00 00:00 00:10 00:00 11:32 00:00 12:00 02:48 00:00
Maximum _ 10,1 C 12,8 C 8,4 C 89 % 1006,3 hPa 0,0 l/m 2 min 0 min 309 W/m 29,0 km/h
SO (5 Bft)
100,00 %
Durchschnitt _ 8,4 C 7,9 C 4,9 C 78 % 999,8 hPa #0,0 l/m #30 min. #0 min. 64 W/m 3,0 km/h (1 Bft) 97,41 %
© 2021 W. Hausmann